OK2JF-6 Weather Reports


time (UTC)temp
C
wind
direction
speed
KPH
gust
KPH
rain 1hr
cm
rain 24hr
cm
rain mn
cm
humidity
%
barometer
mb
20260905195003 14 266 0.0 3.2 0.00 0.51 0.51 72 1088.7
20260905194917 14 266 0.0 3.2 0.00 0.51 0.51 71 1088.7
20260905194903 14 267 0.0 3.2 0.00 0.51 0.51 71 1088.7
20260905194803 0 0 0.0 0.0 0.00 0.00 0.00 1
20260905194704 0 0 0.0 0.0 0.00 0.00 0.00 1
20260905194603 14 263 0.0 3.2 0.00 0.51 0.51 70 1088.7
20260905194503 0 0 0.0 0.0 0.00 0.00 0.00 1
20260905194403 0 0 0.0 0.0 0.00 0.00 0.00 1
20260905194303 14 262 0.0 3.2 0.00 0.51 0.51 70 1088.7
20260905194203 14 264 0.0 3.2 0.00 0.51 0.51 70 1088.7
20260905194103 14 264 0.0 3.2 0.00 0.51 0.51 70 1088.7
20260905194003 14 263 0.0 3.2 0.00 0.51 0.51 70 1088.7
20260905193903 14 263 0.0 3.2 0.00 0.51 0.51 70 1088.7
20260905193803 0 0 0.0 0.0 0.00 0.00 0.00 1
20260905193703 14 264 0.0 3.2 0.00 0.51 0.51 70 1088.7
20260905193603 14 264 0.0 3.2 0.00 0.51 0.51 70 1088.7
20260905193503 14 266 0.0 3.2 0.00 0.51 0.51 70 1088.7
20260905193403 14 265 0.0 3.2 0.00 0.51 0.51 70 1088.7
20260905193303 0 0 0.0 0.0 0.00 0.00 0.00 1
20260905193203 14 262 0.0 3.2 0.00 0.51 0.51 70 1088.7
20260905193118 14 262 0.0 3.2 0.00 0.51 0.51 71 1088.7
20260905193103 14 264 0.0 3.2 0.00 0.51 0.51 71 1088.7
20260905193004 14 262 0.0 3.2 0.00 0.51 0.51 69 1088.7
20260905192903 0 0 0.0 0.0 0.00 0.00 0.00 1
20260905192803 0 0 0.0 0.0 0.00 0.00 0.00 1
20260905192704 14 264 0.0 1.6 0.00 0.51 0.51 68 1088.7
20260905192603 14 262 0.0 1.6 0.00 0.51 0.51 68 1088.7
20260905192512 0 0 0.0 0.0 0.00 0.00 0.00 1
20260905192403 15 260 0.0 3.2 0.00 0.51 0.51 68 1088.7
20260905192306 15 259 0.0 3.2 0.00 0.51 0.51 68 1088.7
20260905192203 15 257 0.0 3.2 0.00 0.51 0.51 68 1088.7
20260905192103 0 0 0.0 0.0 0.00 0.00 0.00 1
20260905192003 0 0 0.0 0.0 0.00 0.00 0.00 1
20260905191903 0 0 0.0 0.0 0.00 0.00 0.00 1
20260905191803 0 0 0.0 0.0 0.00 0.00 0.00 1
20260905191703 15 253 1.6 4.8 0.00 0.51 0.51 67 1088.7
20260905191603 15 254 1.6 4.8 0.00 0.51 0.51 67 1088.7
20260905191503 15 259 1.6 4.8 0.00 0.51 0.51 67 1088.7
20260905191403 0 0 0.0 0.0 0.00 0.00 0.00 1
20260905191303 15 260 1.6 4.8 0.00 0.51 0.51 67 1088.7
20260905191217 15 262 1.6 4.8 0.00 0.51 0.51 67 1088.7
20260905191203 0 0 0.0 0.0 0.00 0.00 0.00 1
20260905191103 0 0 0.0 0.0 0.00 0.00 0.00 1
20260905190903 15 266 3.2 4.8 0.00 0.51 0.51 67 1088.7
20260905190803 15 269 3.2 4.8 0.00 0.51 0.51 67 1088.7
20260905190703 15 271 3.2 4.8 0.00 0.51 0.51 67 1088.7
20260905190603 15 273 3.2 4.8 0.00 0.51 0.51 67 1088.7
20260905190503 15 272 3.2 4.8 0.00 0.51 0.51 67 1088.7
20260905190403 0 0 0.0 0.0 0.00 0.00 0.00 1
20260905190303 15 275 3.2 6.4 0.00 0.51 0.51 66 1088.7
20260905190203 15 273 3.2 6.4 0.00 0.51 0.51 66 1088.7
20260905190104 0 0 0.0 0.0 0.00 0.00 0.00 1
20260905190003 15 274 3.2 6.4 0.00 0.51 0.51 66 1088.7
20260905185903 0 0 0.0 0.0 0.00 0.00 0.00 1
20260905185803 15 277 3.2 6.4 0.00 0.51 0.51 66 1088.7
20260905185703 15 277 3.2 6.4 0.00 0.51 0.51 66 1088.7
20260905185603 15 278 3.2 6.4 0.00 0.51 0.51 66 1088.7
20260905185503 0 0 0.0 0.0 0.00 0.00 0.00 1
20260905185403 16 281 3.2 6.4 0.00 0.51 0.51 65 1088.7
20260905185305 16 280 3.2 6.4 0.00 0.51 0.51 65 1088.7
20260905185203 16 281 3.2 6.4 0.00 0.51 0.51 65 1088.7
20260905185103 0 0 0.0 0.0 0.00 0.00 0.00 1
20260905185003 0 0 0.0 0.0 0.00 0.00 0.00 1
20260905184903 16 281 4.8 11.3 0.00 0.51 0.51 66 1088.7
20260905184803 16 283 4.8 11.3 0.00 0.51 0.51 66 1088.7
20260905184703 0 0 0.0 0.0 0.00 0.00 0.00 1
20260905184603 0 0 0.0 0.0 0.00 0.00 0.00 1
20260905184503 16 283 4.8 11.3 0.00 0.51 0.51 65 1088.7
20260905184403 0 0 0.0 0.0 0.00 0.00 0.00 1
20260905184303 0 0 0.0 0.0 0.00 0.00 0.00 1
20260905184203 0 0 0.0 0.0 0.00 0.00 0.00 1
20260905184108 16 287 4.8 11.3 0.00 0.51 0.51 65 1088.7
20260905184003 16 290 4.8 11.3 0.00 0.51 0.51 65 1088.7
20260905183903 16 292 4.8 11.3 0.00 0.51 0.51 65 1088.7
20260905183803 0 0 0.0 0.0 0.00 0.00 0.00 1
20260905183703 16 290 4.8 9.7 0.00 0.51 0.51 65 1088.7
20260905183603 0 0 0.0 0.0 0.00 0.00 0.00 1
20260905183503 16 291 4.8 9.7 0.00 0.51 0.51 65 1088.7
20260905183403 0 0 0.0 0.0 0.00 0.00 0.00 1
20260905183303 0 0 0.0 0.0 0.00 0.00 0.00 1
20260905183203 16 290 4.8 9.7 0.00 0.51 0.51 64 1088.7
20260905183103 16 287 4.8 9.7 0.00 0.51 0.51 64 1088.7
20260905183003 0 0 0.0 0.0 0.00 0.00 0.00 1
20260905182908 0 0 0.0 0.0 0.00 0.00 0.00 1
20260905182903 16 287 4.8 9.7 0.00 0.51 0.51 64 1088.7
20260905182803 16 287 4.8 9.7 0.00 0.51 0.51 65 1088.7
20260905182713 0 0 0.0 0.0 0.00 0.00 0.00 1
20260905182703 16 286 4.8 9.7 0.00 0.51 0.51 64 1088.7
20260905182603 16 284 4.8 9.7 0.00 0.51 0.51 64 1088.7
20260905182503 16 283 4.8 9.7 0.00 0.51 0.51 64 1088.7
20260905182403 0 0 0.0 0.0 0.00 0.00 0.00 1
20260905182305 16 283 4.8 9.7 0.00 0.51 0.51 64 1088.7
20260905182203 0 0 0.0 0.0 0.00 0.00 0.00 1
20260905182103 0 0 0.0 0.0 0.00 0.00 0.00 1
20260905182003 0 0 0.0 0.0 0.00 0.00 0.00 1
20260905181903 0 0 0.0 0.0 0.00 0.00 0.00 1
20260905181803 16 281 3.2 9.7 0.00 0.51 0.51 64 1088.7
20260905181703 0 0 0.0 0.0 0.00 0.00 0.00 1
20260905181603 16 282 3.2 9.7 0.00 0.51 0.51 64 1088.7
20260905181503 0 0 0.0 0.0 0.00 0.00 0.00 1
20260905181303 16 280 3.2 6.4 0.00 0.51 0.51 64 1088.7
20260905181203 16 276 3.2 6.4 0.00 0.51 0.51 64 1088.7
20260905181103 0 0 0.0 0.0 0.00 0.00 0.00 1
20260905181003 16 274 4.8 9.7 0.00 0.51 0.51 63 1088.7
20260905180903 0 0 0.0 0.0 0.00 0.00 0.00 1
20260905180803 0 0 0.0 0.0 0.00 0.00 0.00 1
20260905180703 16 274 4.8 9.7 0.00 0.51 0.51 63 1088.7
20260905180603 0 0 0.0 0.0 0.00 0.00 0.00 1
20260905180517 16 271 4.8 9.7 0.00 0.51 0.51 63 1088.7
20260905180514 0 0 0.0 0.0 0.00 0.00 0.00 1
20260905180503 16 272 4.8 9.7 0.00 0.51 0.51 63 1088.7
20260905180403 0 0 0.0 0.0 0.00 0.00 0.00 1
20260905180203 16 272 4.8 11.3 0.00 0.51 0.51 63 1088.7
20260905180104 16 274 4.8 12.9 0.00 0.51 0.51 63 1088.7
20260905180018 16 275 4.8 12.9 0.00 0.51 0.51 63 1088.7
20260905180003 16 276 4.8 12.9 0.00 0.51 0.51 63 1088.7
20260905175903 16 275 4.8 12.9 0.00 0.51 0.51 63 1088.7
20260905175703 16 275 4.8 12.9 0.00 0.51 0.51 63 1088.7
20260905175603 0 0 0.0 0.0 0.00 0.00 0.00 1
20260905175503 0 0 0.0 0.0 0.00 0.00 0.00 1
20260905175403 0 0 0.0 0.0 0.00 0.00 0.00 1
20260905175306 16 279 4.8 12.9 0.00 0.51 0.51 62 1088.7
20260905175203 16 280 4.8 12.9 0.00 0.51 0.51 62 1088.7
20260905175103 0 0 0.0 0.0 0.00 0.00 0.00 1
20260905175003 17 283 6.4 14.5 0.00 0.51 0.51 62 1088.7
20260905174903 0 0 0.0 0.0 0.00 0.00 0.00 1
20260905174803 0 0 0.0 0.0 0.00 0.00 0.00 1
20260905174703 17 289 6.4 14.5 0.00 0.51 0.51 62 1088.7
20260905174603 0 0 0.0 0.0 0.00 0.00 0.00 1
20260905174503 17 290 4.8 14.5 0.00 0.51 0.51 62 1088.7
20260905174403 0 0 0.0 0.0 0.00 0.00 0.00 1
20260905174318 17 292 6.4 14.5 0.00 0.51 0.51 62 1088.7
20260905174304 17 293 6.4 14.5 0.00 0.51 0.51 62 1088.7
20260905174203 17 294 6.4 14.5 0.00 0.51 0.51 62 1088.7
20260905174103 0 0 0.0 0.0 0.00 0.00 0.00 1
20260905174003 0 0 0.0 0.0 0.00 0.00 0.00 1
20260905173903 17 293 6.4 14.5 0.00 0.51 0.51 61 1088.7
20260905173803 17 294 6.4 14.5 0.00 0.51 0.51 62 1088.7
20260905173703 0 0 0.0 0.0 0.00 0.00 0.00 1
20260905173603 0 0 0.0 0.0 0.00 0.00 0.00 1
20260905173503 0 0 0.0 0.0 0.00 0.00 0.00 1
20260905173417 17 294 6.4 14.5 0.00 0.51 0.51 61 1088.7
20260905173403 17 295 6.4 14.5 0.00 0.51 0.51 61 1088.7
20260905173303 17 293 6.4 14.5 0.00 0.51 0.51 61 1088.7
20260905173203 0 0 0.0 0.0 0.00 0.00 0.00 1
20260905173103 17 290 6.4 16.1 0.00 0.51 0.51 61 1088.7
20260905173003 0 0 0.0 0.0 0.00 0.00 0.00 1
20260905172903 17 290 8.0 16.1 0.00 0.51 0.51 61 1088.7
20260905172803 17 291 8.0 16.1 0.00 0.51 0.51 61 1088.7
20260905172703 17 291 8.0 16.1 0.00 0.51 0.51 61 1088.7
20260905172603 0 0 0.0 0.0 0.00 0.00 0.00 1
20260905172503 17 288 6.4 16.1 0.00 0.51 0.51 61 1088.7
20260905172417 17 287 6.4 16.1 0.00 0.51 0.51 60 1088.7
20260905172403 17 287 6.4 16.1 0.00 0.51 0.51 60 1088.7
20260905172305 17 286 8.0 16.1 0.00 0.51 0.51 61 1088.7
20260905172216 17 286 8.0 16.1 0.00 0.51 0.51 61 1088.7
20260905172103 17 287 6.4 16.1 0.00 0.51 0.51 61 1088.7
20260905172003 0 0 0.0 0.0 0.00 0.00 0.00 1
20260905171913 0 0 0.0 0.0 0.00 0.00 0.00 1
20260905171903 17 285 6.4 14.5 0.00 0.51 0.51 63 1088.7
20260905171803 0 0 0.0 0.0 0.00 0.00 0.00 1
20260905171703 17 282 6.4 14.5 0.00 0.51 0.51 63 1088.7
20260905171603 0 0 0.0 0.0 0.00 0.00 0.00 1
20260905171503 0 0 0.0 0.0 0.00 0.00 0.00 1
20260905171403 17 279 8.0 22.5 0.00 0.51 0.51 64 1088.7
20260905171303 0 0 0.0 0.0 0.00 0.00 0.00 1
20260905171203 18 279 8.0 22.5 0.00 0.51 0.51 63 1088.7
20260905171103 18 276 8.0 22.5 0.00 0.51 0.51 63 1088.7
20260905171018 18 273 8.0 22.5 0.00 0.51 0.51 64 1088.7
20260905171003 18 274 8.0 22.5 0.00 0.51 0.51 64 1088.7
20260905170903 18 272 8.0 22.5 0.00 0.51 0.51 64 1088.7
20260905170803 0 0 0.0 0.0 0.00 0.00 0.00 1
20260905170714 0 0 0.0 0.0 0.00 0.00 0.00 1
20260905170603 0 0 0.0 0.0 0.00 0.00 0.00 1
20260905170517 18 272 8.0 17.7 0.00 0.51 0.51 64 1088.7
20260905170503 18 271 8.0 17.7 0.00 0.51 0.51 64 1088.7
20260905170403 18 268 8.0 17.7 0.00 0.51 0.51 63 1088.7
20260905170318 18 268 8.0 17.7 0.00 0.51 0.51 63 1088.7
20260905170303 0 0 0.0 0.0 0.00 0.00 0.00 1
20260905170203 0 0 0.0 0.0 0.00 0.00 0.00 1
20260905170003 18 270 8.0 17.7 0.00 0.51 0.51 63 1088.7
20260905165903 18 272 8.0 17.7 0.00 0.51 0.51 63 1088.7
20260905165803 18 269 8.0 17.7 0.00 0.51 0.51 63 1088.7
20260905165703 18 265 8.0 17.7 0.00 0.51 0.51 63 1088.7
20260905165603 0 0 0.0 0.0 0.00 0.00 0.00 1
20260905165503 18 272 6.4 17.7 0.00 0.51 0.51 63 1088.7
20260905165403 18 276 6.4 17.7 0.00 0.51 0.51 63 1088.7
20260905165318 18 275 6.4 17.7 0.00 0.51 0.51 63 1088.7
20260905165306 0 0 0.0 0.0 0.00 0.00 0.00 1
20260905165203 0 0 0.0 0.0 0.00 0.00 0.00 1
20260905165103 0 0 0.0 0.0 0.00 0.00 0.00 1
20260905165003 0 0 0.0 0.0 0.00 0.00 0.00 1
20260905164903 18 274 6.4 16.1 0.00 0.51 0.51 63 1088.7
20260905164803 18 278 6.4 14.5 0.00 0.51 0.51 64 1088.7
20260905164703 0 0 0.0 0.0 0.00 0.00 0.00 1
20260905164604 0 0 0.0 0.0 0.00 0.00 0.00 1
20260905164503 18 279 6.4 20.9 0.00 0.51 0.51 64 1088.7
20260905164403 0 0 0.0 0.0 0.00 0.00 0.00 1
20260905164303 0 0 0.0 0.0 0.00 0.00 0.00 1
20260905164203 0 0 0.0 0.0 0.00 0.00 0.00 1
20260905164003 18 281 8.0 20.9 0.00 0.51 0.51 63 1088.7
20260905163903 0 0 0.0 0.0 0.00 0.00 0.00 1
20260905163803 0 0 0.0 0.0 0.00 0.00 0.00 1
20260905163703 18 278 8.0 20.9 0.00 0.51 0.51 63 1088.7
20260905163603 18 274 8.0 20.9 0.00 0.51 0.51 63 1088.7
20260905163503 0 0 0.0 0.0 0.00 0.00 0.00 1
20260905163403 0 0 0.0 0.0 0.00 0.00 0.00 1
20260905163303 0 0 0.0 0.0 0.00 0.00 0.00 1
20260905163203 18 273 8.0 16.1 0.00 0.51 0.51 63 1088.7
20260905163103 0 0 0.0 0.0 0.00 0.00 0.00 1
20260905163003 18 266 6.4 16.1 0.00 0.51 0.51 63 1088.7
20260905162903 18 263 6.4 16.1 0.00 0.51 0.51 63 1088.7
20260905162803 18 263 6.4 16.1 0.00 0.51 0.51 63 1088.7
20260905162704 0 0 0.0 0.0 0.00 0.00 0.00 1
20260905162603 0 0 0.0 0.0 0.00 0.00 0.00 1
20260905162503 18 268 8.0 20.9 0.00 0.51 0.51 63 1088.7
20260905162403 0 0 0.0 0.0 0.00 0.00 0.00 1
20260905162305 18 274 8.0 20.9 0.00 0.51 0.51 62 1088.7
20260905162218 18 272 8.0 20.9 0.00 0.51 0.51 62 1088.7
20260905162203 0 0 0.0 0.0 0.00 0.00 0.00 1
20260905162103 0 0 0.0 0.0 0.00 0.00 0.00 1
20260905162003 0 0 0.0 0.0 0.00 0.00 0.00 1
20260905161903 18 279 8.0 20.9 0.00 0.51 0.51 62 1088.7
20260905161803 18 281 8.0 20.9 0.00 0.51 0.51 62 1088.7
20260905161703 0 0 0.0 0.0 0.00 0.00 0.00 1
20260905161603 18 278 8.0 20.9 0.00 0.51 0.51 61 1088.7
20260905161503 18 277 6.4 16.1 0.00 0.51 0.51 62 1088.7
20260905161417 19 276 6.4 16.1 0.00 0.51 0.51 62 1088.7
20260905161403 19 275 6.4 16.1 0.00 0.51 0.51 62 1088.7
20260905161303 0 0 0.0 0.0 0.00 0.00 0.00 1
20260905161203 0 0 0.0 0.0 0.00 0.00 0.00 1
20260905161103 0 0 0.0 0.0 0.00 0.00 0.00 1
20260905161003 19 273 6.4 17.7 0.00 0.51 0.51 61 1088.7
20260905160903 0 0 0.0 0.0 0.00 0.00 0.00 1
20260905160803 19 260 6.4 20.9 0.00 0.51 0.51 61 1088.7
20260905160703 19 266 6.4 20.9 0.00 0.51 0.51 61 1088.7
20260905160603 19 264 6.4 20.9 0.00 0.51 0.51 60 1088.7
20260905160503 0 0 0.0 0.0 0.00 0.00 0.00 1
20260905160403 19 265 8.0 20.9 0.00 0.51 0.51 61 1088.7
20260905160303 19 265 8.0 20.9 0.00 0.51 0.51 60 1088.7
20260905160203 19 260 8.0 20.9 0.00 0.51 0.51 60 1088.7
20260905160004 19 261 8.0 20.9 0.00 0.51 0.51 60 1088.7
20260905155903 19 263 8.0 20.9 0.00 0.51 0.51 60 1088.7
20260905155803 0 0 0.0 0.0 0.00 0.00 0.00 1
20260905155703 19 263 8.0 20.9 0.00 0.51 0.51 59 1088.7
20260905155603 19 263 8.0 20.9 0.00 0.51 0.51 59 1088.7
20260905155503 19 263 8.0 20.9 0.00 0.51 0.51 59 1088.7
20260905155417 19 261 8.0 20.9 0.00 0.51 0.51 59 1088.7
20260905155403 0 0 0.0 0.0 0.00 0.00 0.00 1
20260905155306 19 260 8.0 20.9 0.00 0.51 0.51 59 1088.7
20260905155203 0 0 0.0 0.0 0.00 0.00 0.00 1
20260905155103 0 0 0.0 0.0 0.00 0.00 0.00 1
20260905155003 0 0 0.0 0.0 0.00 0.00 0.00 1
20260905154903 0 0 0.0 0.0 0.00 0.00 0.00 1
20260905154803 19 251 8.0 20.9 0.00 0.51 0.51 58 1088.7
20260905154703 19 246 8.0 20.9 0.00 0.51 0.51 58 1088.7
20260905154603 19 239 6.4 20.9 0.00 0.51 0.51 58 1088.7
20260905154503 19 237 6.4 20.9 0.00 0.51 0.51 58 1088.7
20260905154403 19 235 6.4 20.9 0.00 0.51 0.51 57 1088.7
20260905154303 0 0 0.0 0.0 0.00 0.00 0.00 1
20260905154203 20 239 8.0 20.9 0.00 0.51 0.51 57 1088.7
20260905154103 20 242 8.0 24.1 0.00 0.51 0.51 57 1088.7
20260905154003 0 0 0.0 0.0 0.00 0.00 0.00 1
20260905153903 20 240 8.0 27.4 0.00 0.51 0.51 57 1088.7
20260905153803 0 0 0.0 0.0 0.00 0.00 0.00 1
20260905153717 20 241 8.0 27.4 0.00 0.51 0.51 56 1088.7
20260905153703 0 0 0.0 0.0 0.00 0.00 0.00 1
20260905153617 20 241 8.0 27.4 0.00 0.51 0.51 56 1088.7
20260905153603 20 242 8.0 27.4 0.00 0.51 0.51 56 1088.7
20260905153403 0 0 0.0 0.0 0.00 0.00 0.00 1
20260905153303 0 0 0.0 0.0 0.00 0.00 0.00 1
20260905153212 0 0 0.0 0.0 0.00 0.00 0.00 1
20260905153203 20 240 6.4 27.4 0.00 0.51 0.51 56 1088.7
20260905153116 20 237 6.4 27.4 0.00 0.51 0.51 57 1088.7
20260905153103 20 240 6.4 27.4 0.00 0.51 0.51 57 1088.7
20260905153003 20 243 6.4 20.9 0.00 0.51 0.51 57 1088.7
20260905152903 0 0 0.0 0.0 0.00 0.00 0.00 1
20260905152803 0 0 0.0 0.0 0.00 0.00 0.00 1
20260905152717 20 230 9.7 27.4 0.00 0.51 0.51 57 1088.7
20260905152714 0 0 0.0 0.0 0.00 0.00 0.00 1
20260905152703 20 231 9.7 27.4 0.00 0.51 0.51 56 1088.7
20260905152617 20 227 9.7 27.4 0.00 0.51 0.51 56 1088.7
20260905152603 20 229 9.7 27.4 0.00 0.51 0.51 56 1088.7
20260905152403 0 0 0.0 0.0 0.00 0.00 0.00 1
20260905152306 0 0 0.0 0.0 0.00 0.00 0.00 1
20260905152218 20 243 9.7 27.4 0.00 0.51 0.51 57 1088.7
20260905152203 0 0 0.0 0.0 0.00 0.00 0.00 1
20260905152116 20 245 9.7 27.4 0.00 0.51 0.51 56 1088.7
20260905152103 0 0 0.0 0.0 0.00 0.00 0.00 1
20260905152003 0 0 0.0 0.0 0.00 0.00 0.00 1
20260905151918 20 249 9.7 27.4 0.00 0.51 0.51 57 1088.7
20260905151903 0 0 0.0 0.0 0.00 0.00 0.00 1
20260905151803 0 0 0.0 0.0 0.00 0.00 0.00 1
20260905151703 0 0 0.0 0.0 0.00 0.00 0.00 1
20260905151617 19 274 8.0 16.1 0.00 0.51 0.51 58 1088.7
20260905151603 19 275 8.0 16.1 0.00 0.51 0.51 58 1088.7
20260905151503 0 0 0.0 0.0 0.00 0.00 0.00 1
20260905151403 0 0 0.0 0.0 0.00 0.00 0.00 1
20260905151303 19 265 6.4 16.1 0.00 0.51 0.51 57 1088.7
20260905151203 19 265 6.4 16.1 0.00 0.51 0.51 57 1088.7
20260905151103 0 0 0.0 0.0 0.00 0.00 0.00 1
20260905151003 19 259 6.4 16.1 0.00 0.51 0.51 57 1088.7
20260905150917 19 253 4.8 16.1 0.00 0.51 0.51 57 1088.7
20260905150903 19 249 4.8 16.1 0.00 0.51 0.51 57 1088.7
20260905150803 19 235 4.8 16.1 0.00 0.51 0.51 57 1088.7
20260905150703 0 0 0.0 0.0 0.00 0.00 0.00 1
20260905150603 0 0 0.0 0.0 0.00 0.00 0.00 1
20260905150503 19 226 4.8 17.7 0.00 0.51 0.51 58 1088.7
20260905150403 19 231 6.4 25.7 0.00 0.51 0.51 57 1088.7
20260905150317 19 236 8.0 25.7 0.00 0.51 0.51 56 1088.7
20260905150303 19 236 8.0 25.7 0.00 0.51 0.51 57 1088.7
20260905150203 0 0 0.0 0.0 0.00 0.00 0.00 1
20260905150003 19 248 8.0 25.7 0.00 0.51 0.51 56 1088.7
20260905145903 0 0 0.0 0.0 0.00 0.00 0.00 1
20260905145818 19 258 9.7 29.0 0.00 0.51 0.51 56 1088.7
20260905145804 0 0 0.0 0.0 0.00 0.00 0.00 1
20260905145703 19 259 11.3 29.0 0.00 0.51 0.51 56 1088.7
20260905145604 0 0 0.0 0.0 0.00 0.00 0.00 1
20260905145503 19 258 9.7 29.0 0.00 0.51 0.51 56 1088.7
20260905145403 19 261 9.7 29.0 0.00 0.51 0.51 55 1088.7
20260905145317 19 260 9.7 29.0 0.00 0.51 0.51 56 1088.7
20260905145306 19 261 9.7 29.0 0.00 0.51 0.51 56 1088.7
20260905145203 0 0 0.0 0.0 0.00 0.00 0.00 1
20260905145118 19 267 11.3 38.6 0.00 0.51 0.51 55 1088.7
20260905145103 0 0 0.0 0.0 0.00 0.00 0.00 1
20260905145003 19 269 9.7 38.6 0.00 0.51 0.51 54 1088.7
20260905144903 0 0 0.0 0.0 0.00 0.00 0.00 1
20260905144803 0 0 0.0 0.0 0.00 0.00 0.00 1
20260905144703 0 0 0.0 0.0 0.00 0.00 0.00 1
20260905144603 0 0 0.0 0.0 0.00 0.00 0.00 1
20260905144503 19 264 9.7 38.6 0.00 0.51 0.51 54 1088.7
20260905144403 19 262 11.3 38.6 0.00 0.51 0.51 54 1088.7
20260905144303 19 261 9.7 38.6 0.00 0.51 0.51 53 1088.7
20260905144203 19 255 9.7 29.0 0.00 0.51 0.51 53 1088.7
20260905144103 19 247 9.7 29.0 0.00 0.51 0.51 54 1088.7
20260905144003 19 246 9.7 29.0 0.00 0.51 0.51 54 1088.7
20260905143903 19 241 9.7 25.7 0.00 0.51 0.51 54 1088.7
20260905143803 0 0 0.0 0.0 0.00 0.00 0.00 1
20260905143716 19 241 9.7 25.7 0.00 0.51 0.51 55 1088.7
20260905143704 0 0 0.0 0.0 0.00 0.00 0.00 1
20260905143603 19 242 8.0 25.7 0.00 0.51 0.51 55 1088.7
20260905143503 0 0 0.0 0.0 0.00 0.00 0.00 1
20260905143418 19 235 8.0 25.7 0.00 0.51 0.51 56 1088.7
20260905143404 19 234 8.0 25.7 0.00 0.51 0.51 56 1088.7
20260905143317 19 235 8.0 25.7 0.00 0.51 0.51 55 1088.7
20260905143303 19 236 8.0 25.7 0.00 0.51 0.51 55 1088.7
20260905143203 0 0 0.0 0.0 0.00 0.00 0.00 1
20260905143118 19 226 6.4 22.5 0.00 0.51 0.51 56 1088.7
20260905143103 0 0 0.0 0.0 0.00 0.00 0.00 1
20260905143003 0 0 0.0 0.0 0.00 0.00 0.00 1
20260905142903 0 0 0.0 0.0 0.00 0.00 0.00 1
20260905142803 0 0 0.0 0.0 0.00 0.00 0.00 1
20260905142703 19 224 6.4 20.9 0.00 0.51 0.51 55 1088.7
20260905142603 19 213 6.4 17.7 0.00 0.51 0.51 56 1088.7
20260905142503 19 209 6.4 17.7 0.00 0.51 0.51 55 1088.7
20260905142403 19 207 6.4 17.7 0.00 0.51 0.51 55 1088.7
20260905142305 0 0 0.0 0.0 0.00 0.00 0.00 1
20260905142203 0 0 0.0 0.0 0.00 0.00 0.00 1
20260905142103 0 0 0.0 0.0 0.00 0.00 0.00 1
20260905142003 20 196 8.0 20.9 0.00 0.51 0.51 55 1088.7
20260905141903 0 0 0.0 0.0 0.00 0.00 0.00 1
20260905141803 0 0 0.0 0.0 0.00 0.00 0.00 1
20260905141703 0 0 0.0 0.0 0.00 0.00 0.00 1
20260905141603 20 203 8.0 20.9 0.00 0.51 0.51 55 1088.7
20260905141518 20 204 8.0 20.9 0.00 0.51 0.51 54 1088.7
20260905141503 0 0 0.0 0.0 0.00 0.00 0.00 1
20260905141418 20 209 9.7 22.5 0.00 0.51 0.51 55 1088.7
20260905141403 20 210 9.7 22.5 0.00 0.51 0.51 55 1088.7
20260905141317 20 217 9.7 25.7 0.00 0.51 0.51 55 1088.7
20260905141303 0 0 0.0 0.0 0.00 0.00 0.00 1
20260905141203 0 0 0.0 0.0 0.00 0.00 0.00 1
20260905141004 19 230 9.7 29.0 0.00 0.51 0.51 56 1088.7
20260905140903 0 0 0.0 0.0 0.00 0.00 0.00 1
20260905140803 19 232 9.7 29.0 0.00 0.51 0.51 55 1088.7
20260905140718 19 230 11.3 29.0 0.00 0.51 0.51 55 1088.7
20260905140703 19 229 11.3 29.0 0.00 0.51 0.51 55 1088.7
20260905140603 19 224 11.3 29.0 0.00 0.51 0.51 55 1088.7
20260905140503 0 0 0.0 0.0 0.00 0.00 0.00 1
20260905140403 0 0 0.0 0.0 0.00 0.00 0.00 1
20260905140303 0 0 0.0 0.0 0.00 0.00 0.00 1
20260905140203 0 0 0.0 0.0 0.00 0.00 0.00 1
20260905140104 0 0 0.0 0.0 0.00 0.00 0.00 1
20260905140004 0 0 0.0 0.0 0.00 0.00 0.00 1
20260905135903 0 0 0.0 0.0 0.00 0.00 0.00 1
20260905135803 19 231 8.0 22.5 0.00 0.51 0.51 56 1088.7
20260905135703 19 240 8.0 22.5 0.00 0.51 0.51 57 1088.7
20260905135603 0 0 0.0 0.0 0.00 0.00 0.00 1
20260905135512 0 0 0.0 0.0 0.00 0.00 0.00 1
20260905135503 19 255 8.0 24.1 0.00 0.51 0.51 57 1088.7
20260905135418 19 258 8.0 24.1 0.00 0.51 0.51 56 1088.7
20260905135403 19 253 8.0 24.1 0.00 0.51 0.51 56 1088.7
20260905135317 19 247 8.0 24.1 0.00 0.51 0.51 56 1088.7
20260905135306 19 246 8.0 24.1 0.00 0.51 0.51 56 1088.7
20260905135203 0 0 0.0 0.0 0.00 0.00 0.00 1
20260905135103 0 0 0.0 0.0 0.00 0.00 0.00 1
20260905135003 19 236 9.7 27.4 0.00 0.51 0.51 57 1088.7
20260905134903 19 234 9.7 27.4 0.00 0.51 0.51 57 1088.7
20260905134803 0 0 0.0 0.0 0.00 0.00 0.00 1
20260905134703 19 230 9.7 27.4 0.00 0.51 0.51 56 1088.7
20260905134603 19 232 9.7 27.4 0.00 0.51 0.51 55 1088.7
20260905134504 19 225 9.7 27.4 0.00 0.51 0.51 55 1088.7
20260905134403 0 0 0.0 0.0 0.00 0.00 0.00 1
20260905134303 20 225 9.7 27.4 0.00 0.51 0.51 56 1088.7
20260905134203 0 0 0.0 0.0 0.00 0.00 0.00 1
20260905134103 20 217 9.7 20.9 0.00 0.51 0.51 55 1088.7
20260905134003 0 0 0.0 0.0 0.00 0.00 0.00 1
20260905133917 20 207 8.0 20.9 0.00 0.51 0.51 56 1088.7
20260905133903 20 206 8.0 20.9 0.00 0.51 0.51 55 1088.7
20260905133818 20 206 8.0 20.9 0.00 0.51 0.51 55 1088.7
20260905133803 0 0 0.0 0.0 0.00 0.00 0.00 1
20260905133703 0 0 0.0 0.0 0.00 0.00 0.00 1
20260905133603 0 0 0.0 0.0 0.00 0.00 0.00 1
20260905133503 20 217 9.7 24.1 0.00 0.51 0.51 55 1088.7
20260905133403 20 222 9.7 24.1 0.00 0.51 0.51 55 1088.7
20260905133303 0 0 0.0 0.0 0.00 0.00 0.00 1
20260905133203 20 226 8.0 24.1 0.00 0.51 0.51 56 1088.7
20260905133103 20 232 8.0 24.1 0.00 0.51 0.51 56 1088.7
20260905133003 19 234 8.0 24.1 0.00 0.51 0.51 56 1088.7
20260905132903 19 238 8.0 24.1 0.00 0.51 0.51 56 1088.7
20260905132803 0 0 0.0 0.0 0.00 0.00 0.00 1
20260905132703 0 0 0.0 0.0 0.00 0.00 0.00 1
20260905132603 19 226 8.0 24.1 0.00 0.51 0.51 53 1088.7
20260905132503 19 231 8.0 20.9 0.00 0.51 0.51 55 1088.7
20260905132403 19 230 8.0 24.1 0.00 0.51 0.51 56 1088.7
20260905132305 19 231 8.0 24.1 0.00 0.51 0.51 54 1088.7
20260905132217 19 230 8.0 24.1 0.00 0.51 0.51 54 1088.7
20260905132203 0 0 0.0 0.0 0.00 0.00 0.00 1
20260905132118 19 224 8.0 24.1 0.00 0.51 0.51 54 1088.7
20260905132103 19 225 8.0 24.1 0.00 0.51 0.51 55 1088.7
20260905131803 18 232 9.7 24.1 0.00 0.51 0.51 55 1088.7
20260905131703 0 0 0.0 0.0 0.00 0.00 0.00 1
20260905131603 18 230 9.7 24.1 0.00 0.51 0.51 55 1088.7
20260905131503 0 0 0.0 0.0 0.00 0.00 0.00 1
20260905131403 0 0 0.0 0.0 0.00 0.00 0.00 1
20260905131303 0 0 0.0 0.0 0.00 0.00 0.00 1
20260905131203 18 222 8.0 20.9 0.00 0.51 0.51 56 1088.7
20260905131103 0 0 0.0 0.0 0.00 0.00 0.00 1
20260905131004 0 0 0.0 0.0 0.00 0.00 0.00 1
20260905130903 0 0 0.0 0.0 0.00 0.00 0.00 1
20260905130803 18 228 8.0 22.5 0.00 0.51 0.51 55 1088.7
20260905130703 18 233 8.0 22.5 0.00 0.51 0.51 56 1088.7
20260905130603 19 240 8.0 22.5 0.00 0.51 0.51 56 1088.7
20260905130517 19 242 8.0 22.5 0.00 0.51 0.51 57 1088.7
20260905130503 0 0 0.0 0.0 0.00 0.00 0.00 1
20260905130403 0 0 0.0 0.0 0.00 0.00 0.00 1
20260905130303 0 0 0.0 0.0 0.00 0.00 0.00 1
20260905130217 19 251 8.0 22.5 0.00 0.51 0.51 56 1088.7
20260905130203 19 252 8.0 22.5 0.00 0.51 0.51 56 1088.7
20260905130003 0 0 0.0 0.0 0.00 0.00 0.00 1
20260905125903 0 0 0.0 0.0 0.00 0.00 0.00 1
20260905125817 19 244 8.0 22.5 0.00 0.51 0.51 56 1088.7
20260905125803 19 242 8.0 17.7 0.00 0.51 0.51 55 1088.7
20260905125703 19 243 9.7 17.7 0.00 0.51 0.51 55 1088.7
20260905125603 0 0 0.0 0.0 0.00 0.00 0.00 1
20260905125503 19 240 8.0 17.7 0.00 0.51 0.51 54 1088.7
20260905125404 0 0 0.0 0.0 0.00 0.00 0.00 1
20260905125306 0 0 0.0 0.0 0.00 0.00 0.00 1
20260905125203 19 239 8.0 17.7 0.00 0.51 0.51 54 1088.7
20260905125117 19 235 8.0 17.7 0.00 0.51 0.51 55 1088.7
20260905125103 19 236 8.0 17.7 0.00 0.51 0.51 55 1088.7
20260905125003 0 0 0.0 0.0 0.00 0.00 0.00 1
20260905124903 0 0 0.0 0.0 0.00 0.00 0.00 1
20260905124803 19 240 6.4 17.7 0.00 0.51 0.51 54 1088.7
20260905124718 19 249 6.4 17.7 0.00 0.51 0.51 55 1088.7
20260905124703 19 248 6.4 17.7 0.00 0.51 0.51 55 1088.7
20260905124603 19 247 6.4 17.7 0.00 0.51 0.51 54 1088.7
20260905124503 0 0 0.0 0.0 0.00 0.00 0.00 1
20260905124403 0 0 0.0 0.0 0.00 0.00 0.00 1
20260905124303 20 238 8.0 20.9 0.00 0.51 0.51 54 1088.7
20260905124203 20 239 8.0 22.5 0.00 0.51 0.51 54 1088.7
20260905124103 20 240 8.0 22.5 0.00 0.51 0.51 53 1088.7
20260905124003 20 244 8.0 22.5 0.00 0.51 0.51 53 1088.7
20260905123903 20 240 8.0 22.5 0.00 0.51 0.51 53 1088.7
20260905123817 20 247 8.0 22.5 0.00 0.51 0.51 53 1088.7
20260905123803 0 0 0.0 0.0 0.00 0.00 0.00 1
20260905123718 20 240 8.0 22.5 0.00 0.51 0.51 53 1088.7
20260905123703 20 238 9.7 22.5 0.00 0.51 0.51 53 1088.7
20260905123403 0 0 0.0 0.0 0.00 0.00 0.00 1
20260905123318 20 236 9.7 22.5 0.00 0.51 0.51 51 1088.7
20260905123303 20 235 9.7 22.5 0.00 0.51 0.51 51 1088.7
20260905123204 20 233 9.7 22.5 0.00 0.51 0.51 51 1088.7
20260905123103 0 0 0.0 0.0 0.00 0.00 0.00 1
20260905123003 0 0 0.0 0.0 0.00 0.00 0.00 1
20260905122903 20 228 9.7 22.5 0.00 0.51 0.51 54 1088.7
20260905122803 20 225 9.7 22.5 0.00 0.51 0.51 54 1088.7
20260905122703 20 221 9.7 22.5 0.00 0.51 0.51 53 1088.7
20260905122603 0 0 0.0 0.0 0.00 0.00 0.00 1
20260905122517 20 222 8.0 22.5 0.00 0.51 0.51 56 1088.7
20260905122503 0 0 0.0 0.0 0.00 0.00 0.00 1
20260905122417 20 224 8.0 22.5 0.00 0.51 0.51 56 1088.7
20260905122403 20 225 8.0 22.5 0.00 0.51 0.51 56 1088.7
20260905122306 0 0 0.0 0.0 0.00 0.00 0.00 1
20260905122203 0 0 0.0 0.0 0.00 0.00 0.00 1
20260905122103 0 0 0.0 0.0 0.00 0.00 0.00 1
20260905122003 0 0 0.0 0.0 0.00 0.00 0.00 1
20260905121903 0 0 0.0 0.0 0.00 0.00 0.00 1
20260905121803 0 0 0.0 0.0 0.00 0.00 0.00 1
20260905121703 19 242 9.7 22.5 0.00 0.51 0.51 56 1088.7
20260905121603 0 0 0.0 0.0 0.00 0.00 0.00 1
20260905121503 19 255 11.3 33.8 0.00 0.51 0.51 57 1088.7
20260905121403 19 258 11.3 33.8 0.00 0.51 0.51 57 1088.7
20260905121303 19 260 12.9 33.8 0.00 0.51 0.51 57 1088.7
20260905121203 19 266 12.9 33.8 0.00 0.51 0.51 57 1088.7
20260905121103 0 0 0.0 0.0 0.00 0.00 0.00 1
20260905121003 19 263 12.9 33.8 0.00 0.51 0.51 56 1088.7
20260905120903 0 0 0.0 0.0 0.00 0.00 0.00 1
20260905120804 19 262 12.9 33.8 0.00 0.51 0.51 55 1088.7
20260905120703 20 260 12.9 33.8 0.00 0.51 0.51 54 1088.7
20260905120618 20 258 11.3 33.8 0.00 0.51 0.51 54 1088.7
20260905120604 20 258 11.3 33.8 0.00 0.51 0.51 54 1088.7
20260905120503 20 251 9.7 27.4 0.00 0.51 0.51 54 1088.7
20260905120403 0 0 0.0 0.0 0.00 0.00 0.00 1
20260905120318 20 230 8.0 27.4 0.00 0.51 0.51 53 1088.7
20260905120303 20 227 8.0 27.4 0.00 0.51 0.51 53 1088.7
20260905120203 20 221 8.0 25.7 0.00 0.51 0.51 55 1088.7
20260905120003 20 208 8.0 17.7 0.00 0.51 0.51 55 1088.7
20260905115903 20 204 6.4 17.7 0.00 0.51 0.51 54 1088.7
20260905115803 0 0 0.0 0.0 0.00 0.00 0.00 1
20260905115718 20 202 8.0 17.7 0.00 0.51 0.51 56 1088.7
20260905115703 0 0 0.0 0.0 0.00 0.00 0.00 1
20260905115618 20 197 8.0 17.7 0.00 0.51 0.51 56 1088.7
20260905115603 0 0 0.0 0.0 0.00 0.00 0.00 1
20260905115503 0 0 0.0 0.0 0.00 0.00 0.00 1
20260905115403 0 0 0.0 0.0 0.00 0.00 0.00 1
20260905115306 19 214 6.4 17.7 0.00 0.51 0.51 59 1088.7
20260905115203 19 223 6.4 17.7 0.00 0.51 0.51 59 1088.7
20260905115119 19 237 6.4 17.7 0.00 0.51 0.51 58 1088.7
20260905115103 19 239 6.4 17.7 0.00 0.51 0.51 58 1088.7
20260905115003 19 239 6.4 17.7 0.00 0.51 0.51 59 1088.7
20260905114918 18 239 6.4 17.7 0.00 0.51 0.51 58 1088.7
20260905114903 0 0 0.0 0.0 0.00 0.00 0.00 1
20260905114803 18 241 6.4 17.7 0.00 0.51 0.51 59 1088.7
20260905114703 0 0 0.0 0.0 0.00 0.00 0.00 1
20260905114603 0 0 0.0 0.0 0.00 0.00 0.00 1
20260905114517 18 259 6.4 17.7 0.00 0.51 0.51 60 1088.7
20260905114503 0 0 0.0 0.0 0.00 0.00 0.00 1
20260905114408 0 0 0.0 0.0 0.00 0.00 0.00 1
20260905114403 18 258 6.4 16.1 0.00 0.51 0.51 59 1088.7
20260905114303 0 0 0.0 0.0 0.00 0.00 0.00 1
20260905114203 18 263 8.0 17.7 0.00 0.51 0.51 58 1088.7
20260905114103 18 258 8.0 17.7 0.00 0.51 0.51 58 1088.7
20260905114003 18 263 8.0 17.7 0.00 0.51 0.51 58 1088.7
20260905113903 19 267 8.0 22.5 0.00 0.51 0.51 58 1088.7
20260905113803 19 261 8.0 27.4 0.00 0.51 0.51 59 1088.7
20260905113717 19 266 9.7 27.4 0.00 0.51 0.51 59 1088.7
20260905113703 19 266 9.7 27.4 0.00 0.51 0.51 59 1088.7
20260905113618 19 265 9.7 27.4 0.00 0.51 0.51 59 1088.7
20260905113603 19 266 11.3 27.4 0.00 0.51 0.51 58 1088.7
20260905113503 0 0 0.0 0.0 0.00 0.00 0.00 1
20260905113403 0 0 0.0 0.0 0.00 0.00 0.00 1
20260905113303 0 0 0.0 0.0 0.00 0.00 0.00 1
20260905113204 19 258 11.3 27.4 0.00 0.51 0.51 59 1088.7
20260905113117 19 253 11.3 27.4 0.00 0.51 0.51 59 1088.7
20260905113104 0 0 0.0 0.0 0.00 0.00 0.00 1
20260905113004 19 248 11.3 27.4 0.00 0.51 0.51 58 1088.7
20260905112904 0 0 0.0 0.0 0.00 0.00 0.00 1
20260905112803 19 248 11.3 27.4 0.00 0.51 0.51 57 1088.7
20260905112703 19 240 11.3 27.4 0.00 0.51 0.51 57 1088.7
20260905112603 19 239 9.7 27.4 0.00 0.51 0.51 57 1088.7
20260905112503 19 234 9.7 24.1 0.00 0.51 0.51 60 1088.7
20260905112417 19 241 11.3 33.8 0.00 0.51 0.51 59 1088.7
20260905112403 0 0 0.0 0.0 0.00 0.00 0.00 1
20260905112305 0 0 0.0 0.0 0.00 0.00 0.00 1
20260905112203 0 0 0.0 0.0 0.00 0.00 0.00 1
20260905112103 19 250 11.3 33.8 0.00 0.51 0.51 58 1088.7
20260905112003 19 252 11.3 33.8 0.00 0.51 0.51 58 1088.7
20260905111903 0 0 0.0 0.0 0.00 0.00 0.00 1
20260905111803 19 246 9.7 33.8 0.00 0.51 0.51 58 1088.7
20260905111703 19 250 9.7 33.8 0.00 0.51 0.51 58 1088.7
20260905111603 19 250 9.7 33.8 0.00 0.51 0.51 57 1088.7
20260905111503 0 0 0.0 0.0 0.00 0.00 0.00 1
20260905111403 0 0 0.0 0.0 0.00 0.00 0.00 1
20260905111303 0 0 0.0 0.0 0.00 0.00 0.00 1
20260905111203 0 0 0.0 0.0 0.00 0.00 0.00 1
20260905111103 19 241 8.0 22.5 0.00 0.51 0.51 59 1088.7
20260905111003 0 0 0.0 0.0 0.00 0.00 0.00 1
20260905110903 0 0 0.0 0.0 0.00 0.00 0.00 1
20260905110803 19 250 9.7 22.5 0.00 0.51 0.51 60 1088.7
20260905110703 19 249 9.7 22.5 0.00 0.51 0.51 60 1088.7
20260905110603 19 249 9.7 22.5 0.00 0.51 0.51 59 1088.7
20260905110503 19 244 9.7 22.5 0.00 0.51 0.51 61 1088.7
20260905110403 19 244 8.0 22.5 0.00 0.51 0.51 60 1088.7
20260905110318 19 244 8.0 22.5 0.00 0.51 0.51 59 1088.7
20260905110303 0 0 0.0 0.0 0.00 0.00 0.00 1
20260905110203 19 239 8.0 20.9 0.00 0.51 0.51 59 1088.7
20260905110003 19 228 8.0 20.9 0.00 0.51 0.51 60 1088.7
20260905105903 19 221 8.0 22.5 0.00 0.51 0.51 60 1088.7
20260905105803 19 216 8.0 22.5 0.00 0.51 0.51 60 1088.7
20260905105703 19 212 8.0 22.5 0.00 0.51 0.51 60 1088.7
20260905105603 19 216 9.7 25.7 0.00 0.51 0.51 58 1088.7
20260905105503 0 0 0.0 0.0 0.00 0.00 0.00 1
20260905105414 0 0 0.0 0.0 0.00 0.00 0.00 1
20260905105403 19 224 9.7 25.7 0.00 0.51 0.51 62 1088.7
20260905105306 0 0 0.0 0.0 0.00 0.00 0.00 1
20260905105204 18 252 9.7 25.7 0.00 0.51 0.51 62 1088.7
20260905105103 18 265 9.7 25.7 0.00 0.51 0.51 63 1088.7
20260905105003 0 0 0.0 0.0 0.00 0.00 0.00 1
20260905104903 18 315 9.7 25.7 0.00 0.51 0.51 60 1088.7
20260905104803 19 330 9.7 25.7 0.00 0.51 0.51 60 1088.7
20260905104703 19 330 8.0 25.7 0.00 0.51 0.51 60 1088.7
20260905104603 0 0 0.0 0.0 0.00 0.00 0.00 1
20260905104503 0 0 0.0 0.0 0.00 0.00 0.00 1
20260905104403 0 0 0.0 0.0 0.00 0.00 0.00 1
20260905104312 0 0 0.0 0.0 0.00 0.00 0.00 1
20260905104303 19 350 8.0 20.9 0.00 0.51 0.51 60 1088.7
20260905104203 19 346 8.0 20.9 0.00 0.51 0.51 61 1088.7
20260905104117 19 347 8.0 20.9 0.00 0.51 0.51 61 1088.7
20260905104003 0 0 0.0 0.0 0.00 0.00 0.00 1
20260905103903 0 0 0.0 0.0 0.00 0.00 0.00 1
20260905103803 19 322 8.0 24.1 0.00 0.51 0.51 62 1088.7
20260905103703 0 0 0.0 0.0 0.00 0.00 0.00 1
20260905103618 19 322 8.0 24.1 0.00 0.51 0.51 62 1088.7
20260905103603 19 324 8.0 24.1 0.00 0.51 0.51 62 1088.7
20260905103503 19 327 8.0 24.1 0.00 0.51 0.51 62 1088.7
20260905103417 19 325 8.0 24.1 0.00 0.51 0.51 61 1088.7
20260905103303 0 0 0.0 0.0 0.00 0.00 0.00 1
20260905103203 0 0 0.0 0.0 0.00 0.00 0.00 1
20260905103103 0 0 0.0 0.0 0.00 0.00 0.00 1
20260905103003 18 347 8.0 27.4 0.00 0.51 0.51 63 1088.7
20260905102903 18 349 8.0 27.4 0.00 0.51 0.51 63 1088.7
20260905102803 0 0 0.0 0.0 0.00 0.00 0.00 1
20260905102703 19 4 8.0 27.4 0.00 0.51 0.51 61 1088.7
20260905102603 0 0 0.0 0.0 0.00 0.00 0.00 1
20260905102503 19 356 8.0 27.4 0.00 0.51 0.51 61 1088.7
20260905102403 20 358 6.4 27.4 0.00 0.51 0.51 60 1088.7
20260905102306 20 353 8.0 27.4 0.00 0.51 0.51 60 1088.7
20260905102203 0 0 0.0 0.0 0.00 0.00 0.00 1
20260905102103 20 313 6.4 27.4 0.00 0.51 0.51 58 1088.7
20260905102003 0 0 0.0 0.0 0.00 0.00 0.00 1
20260905101903 0 0 0.0 0.0 0.00 0.00 0.00 1
20260905101818 20 291 6.4 17.7 0.00 0.51 0.51 61 1088.7
20260905101803 0 0 0.0 0.0 0.00 0.00 0.00 1
20260905101703 20 294 6.4 17.7 0.00 0.51 0.51 62 1088.7
20260905101603 0 0 0.0 0.0 0.00 0.00 0.00 1
20260905101518 20 297 4.8 17.7 0.00 0.51 0.51 63 1088.7
20260905101503 0 0 0.0 0.0 0.00 0.00 0.00 1
20260905101417 19 312 6.4 17.7 0.00 0.51 0.51 64 1088.7
20260905101403 0 0 0.0 0.0 0.00 0.00 0.00 1
20260905101303 0 0 0.0 0.0 0.00 0.00 0.00 1
20260905101203 0 0 0.0 0.0 0.00 0.00 0.00 1
20260905101103 19 322 6.4 25.7 0.00 0.51 0.51 63 1088.7
20260905101003 0 0 0.0 0.0 0.00 0.00 0.00 1
20260905100918 19 317 6.4 25.7 0.00 0.51 0.51 64 1088.7
20260905100903 0 0 0.0 0.0 0.00 0.00 0.00 1
20260905100803 18 317 6.4 25.7 0.00 0.51 0.51 64 1088.7
20260905100703 0 0 0.0 0.0 0.00 0.00 0.00 1
20260905100603 18 308 8.0 25.7 0.00 0.51 0.51 64 1088.7
20260905100503 0 0 0.0 0.0 0.00 0.00 0.00 1
20260905100403 18 289 8.0 25.7 0.00 0.51 0.51 66 1088.7
20260905100303 0 0 0.0 0.0 0.00 0.00 0.00 1
20260905100203 18 288 8.0 25.7 0.00 0.51 0.51 64 1088.7
20260905100017 18 279 8.0 22.5 0.00 0.51 0.51 67 1088.7
20260905100003 0 0 0.0 0.0 0.00 0.00 0.00 1
20260905095903 18 273 6.4 22.5 0.00 0.51 0.51 68 1088.7
20260905095818 18 272 6.4 22.5 0.00 0.51 0.51 68 1088.7
20260905095803 0 0 0.0 0.0 0.00 0.00 0.00 1
20260905095703 0 0 0.0 0.0 0.00 0.00 0.00 1
20260905095603 0 0 0.0 0.0 0.00 0.00 0.00 1
20260905095518 18 279 6.4 22.5 0.00 0.51 0.51 66 1088.7
20260905095503 0 0 0.0 0.0 0.00 0.00 0.00 1
20260905095403 0 0 0.0 0.0 0.00 0.00 0.00 1
20260905095305 0 0 0.0 0.0 0.00 0.00 0.00 1
20260905095203 18 285 6.4 16.1 0.00 0.51 0.51 68 1088.7
20260905095103 18 302 4.8 20.9 0.00 0.51 0.51 68 1088.7
20260905095004 18 302 4.8 20.9 0.00 0.51 0.51 68 1088.7
20260905094903 0 0 0.0 0.0 0.00 0.00 0.00 1
20260905094803 18 307 6.4 20.9 0.00 0.51 0.51 67 1088.7
20260905094703 0 0 0.0 0.0 0.00 0.00 0.00 1
20260905094603 0 0 0.0 0.0 0.00 0.00 0.00 1
20260905094503 0 0 0.0 0.0 0.00 0.00 0.00 1
20260905094403 0 0 0.0 0.0 0.00 0.00 0.00 1
20260905094303 0 0 0.0 0.0 0.00 0.00 0.00 1
20260905094218 18 324 6.4 20.9 0.00 0.51 0.51 67 1088.7
20260905094203 0 0 0.0 0.0 0.00 0.00 0.00 1
20260905094103 0 0 0.0 0.0 0.00 0.00 0.00 1
20260905094017 18 322 6.4 17.7 0.00 0.51 0.51 66 1088.7
20260905094003 0 0 0.0 0.0 0.00 0.00 0.00 1
20260905093903 18 315 6.4 17.7 0.00 0.51 0.51 69 1088.7
20260905093803 0 0 0.0 0.0 0.00 0.00 0.00 1
20260905093703 18 330 6.4 20.9 0.00 0.51 0.51 68 1088.7
20260905093603 0 0 0.0 0.0 0.00 0.00 0.00 1
20260905093503 0 0 0.0 0.0 0.00 0.00 0.00 1
20260905093403 0 0 0.0 0.0 0.00 0.00 0.00 1
20260905093303 0 0 0.0 0.0 0.00 0.00 0.00 1
20260905093203 0 0 0.0 0.0 0.00 0.00 0.00 1
20260905093103 0 0 0.0 0.0 0.00 0.00 0.00 1
20260905093003 0 0 0.0 0.0 0.00 0.00 0.00 1
20260905092903 0 0 0.0 0.0 0.00 0.00 0.00 1
20260905092803 20 290 6.4 22.5 0.00 0.51 0.51 66 1088.7
20260905092703 0 0 0.0 0.0 0.00 0.00 0.00 1
20260905092617 20 283 8.0 24.1 0.00 0.51 0.51 65 1088.7
20260905092603 0 0 0.0 0.0 0.00 0.00 0.00 1
20260905092503 20 292 8.0 24.1 0.00 0.51 0.51 64 1088.7
20260905092403 0 0 0.0 0.0 0.00 0.00 0.00 1
20260905092306 0 0 0.0 0.0 0.00 0.00 0.00 1
20260905092218 20 291 8.0 24.1 0.00 0.51 0.51 66 1088.7
20260905092203 20 294 8.0 24.1 0.00 0.51 0.51 66 1088.7
20260905092118 20 291 8.0 24.1 0.00 0.51 0.51 66 1088.7
20260905092103 20 293 8.0 24.1 0.00 0.51 0.51 66 1088.7
20260905092003 0 0 0.0 0.0 0.00 0.00 0.00 1
20260905091903 0 0 0.0 0.0 0.00 0.00 0.00 1
20260905091803 0 0 0.0 0.0 0.00 0.00 0.00 1
20260905091703 19 297 6.4 16.1 0.00 0.51 0.51 67 1088.7
20260905091603 19 279 6.4 16.1 0.00 0.51 0.51 67 1088.7
20260905091503 0 0 0.0 0.0 0.00 0.00 0.00 1
20260905091403 19 231 6.4 24.1 0.00 0.51 0.51 68 1088.7
20260905091303 19 213 6.4 24.1 0.00 0.51 0.51 68 1088.7
20260905091203 0 0 0.0 0.0 0.00 0.00 0.00 1
20260905091103 0 0 0.0 0.0 0.00 0.00 0.00 1
20260905091003 19 194 4.8 24.1 0.00 0.51 0.51 69 1088.7
20260905090917 19 196 4.8 24.1 0.00 0.51 0.51 69 1088.7
20260905090903 0 0 0.0 0.0 0.00 0.00 0.00 1
20260905090803 19 200 4.8 24.1 0.00 0.51 0.51 67 1088.7
20260905090703 0 0 0.0 0.0 0.00 0.00 0.00 1
20260905090603 0 0 0.0 0.0 0.00 0.00 0.00 1
20260905090503 0 0 0.0 0.0 0.00 0.00 0.00 1
20260905090403 20 209 4.8 16.1 0.00 0.51 0.51 66 1088.7
20260905090304 0 0 0.0 0.0 0.00 0.00 0.00 1
20260905090203 0 0 0.0 0.0 0.00 0.00 0.00 1
20260905090103 19 219 4.8 16.1 0.00 0.51 0.51 70 1088.7
20260905090003 0 0 0.0 0.0 0.00 0.00 0.00 1
20260905085903 19 222 4.8 16.1 0.00 0.51 0.51 73 1088.7
20260905085803 18 217 4.8 16.1 0.00 0.51 0.51 73 1088.7
20260905085703 0 0 0.0 0.0 0.00 0.00 0.00 1
20260905085603 0 0 0.0 0.0 0.00 0.00 0.00 1
20260905085503 18 228 4.8 16.1 0.00 0.51 0.51 73 1088.7
20260905085403 18 229 4.8 16.1 0.00 0.51 0.51 74 1088.7
20260905085305 0 0 0.0 0.0 0.00 0.00 0.00 1
20260905085203 18 212 4.8 16.1 0.00 0.51 0.51 74 1088.7
20260905085103 18 206 3.2 12.9 0.00 0.51 0.51 74 1088.7
20260905085004 0 0 0.0 0.0 0.00 0.00 0.00 1
20260905084917 18 200 3.2 12.9 0.00 0.51 0.51 75 1088.7
20260905084903 18 202 3.2 12.9 0.00 0.51 0.51 76 1088.7
20260905084803 18 210 3.2 12.9 0.00 0.51 0.51 76 1088.7
20260905084703 0 0 0.0 0.0 0.00 0.00 0.00 1
20260905084604 17 207 3.2 9.7 0.00 0.51 0.51 79 1088.7
20260905084503 17 220 4.8 24.1 0.00 0.51 0.51 79 1088.7
20260905084403 17 223 4.8 24.1 0.00 0.51 0.51 77 1088.7
20260905084303 0 0 0.0 0.0 0.00 0.00 0.00 1
20260905084203 0 0 0.0 0.0 0.00 0.00 0.00 1
20260905084103 17 226 6.4 24.1 0.00 0.51 0.51 76 1088.7
20260905084003 0 0 0.0 0.0 0.00 0.00 0.00 1
20260905083903 17 221 6.4 24.1 0.00 0.51 0.51 75 1088.7
20260905083818 18 220 6.4 24.1 0.00 0.51 0.51 75 1088.7
20260905083803 18 219 6.4 24.1 0.00 0.51 0.51 75 1088.7
20260905083603 0 0 0.0 0.0 0.00 0.00 0.00 1
20260905083503 0 0 0.0 0.0 0.00 0.00 0.00 1
20260905083403 18 217 6.4 14.5 0.00 0.51 0.51 79 1088.7
20260905083303 18 221 6.4 14.5 0.00 0.51 0.51 79 1088.7
20260905083203 17 224 6.4 17.7 0.00 0.51 0.51 81 1088.7
20260905083103 17 229 6.4 17.7 0.00 0.51 0.51 81 1088.7
20260905083003 17 228 8.0 17.7 0.00 0.51 0.51 80 1088.7
20260905082903 17 228 8.0 17.7 0.00 0.51 0.51 81 1088.7
20260905082803 0 0 0.0 0.0 0.00 0.00 0.00 1
20260905082703 0 0 0.0 0.0 0.00 0.00 0.00 1
20260905082603 0 0 0.0 0.0 0.00 0.00 0.00 1
20260905082503 17 226 8.0 17.7 0.00 0.51 0.51 80 1088.7
20260905082403 17 230 6.4 17.7 0.00 0.51 0.51 80 1088.7
20260905082307 17 224 6.4 17.7 0.00 0.51 0.51 81 1088.7
20260905082203 17 225 6.4 17.7 0.00 0.51 0.51 81 1088.7
20260905082103 17 230 6.4 16.1 0.00 0.51 0.51 81 1088.7
20260905082003 17 236 6.4 16.1 0.00 0.51 0.51 82 1088.7
20260905081903 16 241 6.4 16.1 0.00 0.51 0.51 84 1088.7
20260905081804 16 239 4.8 16.1 0.00 0.51 0.51 86 1088.7
20260905081718 16 241 4.8 16.1 0.00 0.51 0.51 84 1088.7
20260905081703 16 244 4.8 16.1 0.00 0.51 0.51 84 1088.7
20260905081603 16 244 6.4 16.1 0.00 0.51 0.51 85 1088.7
20260905081517 16 243 4.8 16.1 0.00 0.51 0.51 86 1088.7
20260905081503 0 0 0.0 0.0 0.00 0.00 0.00 1
20260905081403 16 241 4.8 16.1 0.00 0.51 0.51 86 1088.7
20260905081203 0 0 0.0 0.0 0.00 0.00 0.00 1
20260905081103 0 0 0.0 0.0 0.00 0.00 0.00 1
20260905081013 0 0 0.0 0.0 0.00 0.00 0.00 1
20260905081003 15 218 4.8 22.5 0.00 0.51 0.51 89 1088.7
20260905080903 0 0 0.0 0.0 0.00 0.00 0.00 1
20260905080803 15 215 6.4 22.5 0.00 0.51 0.51 88 1088.7
20260905080703 0 0 0.0 0.0 0.00 0.00 0.00 1
20260905080603 0 0 0.0 0.0 0.00 0.00 0.00 1
20260905080503 0 0 0.0 0.0 0.00 0.00 0.00 1
20260905080418 15 212 4.8 22.5 0.00 0.51 0.51 89 1088.7
20260905080403 0 0 0.0 0.0 0.00 0.00 0.00 1
20260905080303 0 0 0.0 0.0 0.00 0.00 0.00 1
20260905080217 15 216 4.8 12.9 0.00 0.51 0.51 90 1088.7
20260905080003 0 0 0.0 0.0 0.00 0.00 0.00 1
20260905075903 0 0 0.0 0.0 0.00 0.00 0.00 1
20260905075803 15 217 3.2 11.3 0.00 0.51 0.51 90 1088.7
20260905075703 15 217 3.2 12.9 0.00 0.51 0.51 90 1088.7
20260905075603 14 221 4.8 14.5 0.00 0.51 0.51 89 1088.7
20260905075503 0 0 0.0 0.0 0.00 0.00 0.00 1
20260905075403 14 224 4.8 14.5 0.00 0.51 0.51 91 1088.7
20260905075306 14 224 4.8 14.5 0.00 0.51 0.51 91 1088.7
20260905075203 0 0 0.0 0.0 0.00 0.00 0.00 1
20260905075103 14 225 4.8 14.5 0.00 0.51 0.51 91 1088.7
20260905075003 14 230 4.8 14.5 0.00 0.51 0.51 90 1088.7
20260905074903 0 0 0.0 0.0 0.00 0.00 0.00 1
20260905074803 14 234 4.8 14.5 0.00 0.51 0.51 91 1088.7
20260905074703 0 0 0.0 0.0 0.00 0.00 0.00 1
20260905074603 14 245 3.2 14.5 0.00 0.51 0.51 92 1088.7
20260905074503 14 244 3.2 6.4 0.00 0.51 0.51 91 1088.7
20260905074403 14 249 3.2 9.7 0.00 0.51 0.51 91 1088.7
20260905074303 0 0 0.0 0.0 0.00 0.00 0.00 1
20260905074203 0 0 0.0 0.0 0.00 0.00 0.00 1
20260905074117 14 255 3.2 11.3 0.00 0.51 0.51 90 1088.7
20260905074103 14 256 3.2 11.3 0.00 0.51 0.51 90 1088.7
20260905074003 14 254 3.2 11.3 0.00 0.51 0.51 91 1088.7
20260905073913 0 0 0.0 0.0 0.00 0.00 0.00 1
20260905073803 0 0 0.0 0.0 0.00 0.00 0.00 1
20260905073703 14 260 3.2 11.3 0.00 0.51 0.51 93 1088.7
20260905073603 14 257 3.2 11.3 0.00 0.51 0.51 93 1088.7
20260905073517 14 256 3.2 11.3 0.00 0.51 0.51 93 1088.7
20260905073503 14 254 3.2 11.3 0.00 0.51 0.51 93 1088.7
20260905073403 0 0 0.0 0.0 0.00 0.00 0.00 1
20260905073318 13 243 1.6 11.3 0.00 0.51 0.51 94 1088.7
20260905073303 0 0 0.0 0.0 0.00 0.00 0.00 1
20260905073203 0 0 0.0 0.0 0.00 0.00 0.00 1
20260905073103 0 0 0.0 0.0 0.00 0.00 0.00 1
20260905073003 0 0 0.0 0.0 0.00 0.00 0.00 1
20260905072903 0 0 0.0 0.0 0.00 0.00 0.00 1
20260905072803 13 245 3.2 9.7 0.00 0.51 0.51 92 1088.7
20260905072703 13 244 3.2 9.7 0.00 0.51 0.51 93 1088.7
20260905072603 13 242 3.2 9.7 0.00 0.51 0.51 92 1088.7
20260905072517 13 240 4.8 9.7 0.00 0.51 0.51 92 1088.7
20260905072503 13 241 4.8 9.7 0.00 0.51 0.51 92 1088.7
20260905072403 0 0 0.0 0.0 0.00 0.00 0.00 1
20260905072305 0 0 0.0 0.0 0.00 0.00 0.00 1
20260905072203 0 0 0.0 0.0 0.00 0.00 0.00 1
20260905072103 13 234 3.2 9.7 0.00 0.51 0.51 94 1088.7
20260905072003 13 231 3.2 9.7 0.00 0.51 0.51 94 1088.7
20260905071903 13 231 1.6 6.4 0.00 0.51 0.51 94 1088.7
20260905071803 13 228 1.6 6.4 0.00 0.51 0.51 94 1088.7
20260905071703 13 227 1.6 6.4 0.00 0.51 0.51 93 1088.7
20260905071603 0 0 0.0 0.0 0.00 0.00 0.00 1
20260905071517 13 228 1.6 4.8 0.00 0.51 0.51 94 1088.7
20260905071504 13 227 1.6 4.8 0.00 0.51 0.51 94 1088.7
20260905071403 0 0 0.0 0.0 0.00 0.00 0.00 1
20260905071203 13 246 1.6 6.4 0.00 0.51 0.51 95 1088.7
20260905071103 0 0 0.0 0.0 0.00 0.00 0.00 1
20260905071003 13 253 1.6 6.4 0.00 0.51 0.51 95 1088.7
20260905070903 0 0 0.0 0.0 0.00 0.00 0.00 1
20260905070817 13 252 1.6 6.4 0.00 0.51 0.51 95 1088.7
20260905070803 0 0 0.0 0.0 0.00 0.00 0.00 1
20260905070718 13 259 1.6 6.4 0.00 0.51 0.51 95 1088.7
20260905070703 0 0 0.0 0.0 0.00 0.00 0.00 1
20260905070603 0 0 0.0 0.0 0.00 0.00 0.00 1
20260905070514 0 0 0.0 0.0 0.00 0.00 0.00 1
20260905070403 13 255 1.6 9.7 0.00 0.51 0.51 95 1088.7
20260905070303 13 258 1.6 9.7 0.00 0.51 0.51 95 1088.7
20260905070213 0 0 0.0 0.0 0.00 0.00 0.00 1
20260905070203 13 254 1.6 9.7 0.00 0.51 0.51 95 1088.7
20260905070004 13 247 1.6 9.7 0.00 0.51 0.51 95 1088.7
20260905065904 0 0 0.0 0.0 0.00 0.00 0.00 1
20260905065803 0 0 0.0 0.0 0.00 0.00 0.00 1
20260905065718 12 244 1.6 9.7 0.00 0.51 0.51 95 1088.7
20260905065703 12 242 1.6 9.7 0.00 0.51 0.51 95 1088.7
20260905065603 12 247 1.6 9.7 0.00 0.51 0.51 95 1088.7
20260905065517 12 248 1.6 9.7 0.00 0.51 0.51 95 1088.7
20260905065503 0 0 0.0 0.0 0.00 0.00 0.00 1
20260905065403 12 243 1.6 6.4 0.00 0.51 0.51 95 1088.7
20260905065217 12 234 1.6 4.8 0.00 0.51 0.51 95 1088.7
20260905065203 12 235 1.6 4.8 0.00 0.51 0.51 95 1088.7
20260905065103 0 0 0.0 0.0 0.00 0.00 0.00 1
20260905065018 12 237 1.6 4.8 0.00 0.51 0.51 96 1088.7
20260905065003 0 0 0.0 0.0 0.00 0.00 0.00 1
20260905064903 12 235 1.6 4.8 0.00 0.51 0.51 96 1088.7
20260905064803 0 0 0.0 0.0 0.00 0.00 0.00 1
20260905064703 12 232 1.6 4.8 0.00 0.51 0.51 96 1088.7
20260905064603 0 0 0.0 0.0 0.00 0.00 0.00 1
20260905064503 12 223 1.6 4.8 0.00 0.51 0.51 96 1088.7
20260905064403 0 0 0.0 0.0 0.00 0.00 0.00 1
20260905064303 0 0 0.0 0.0 0.00 0.00 0.00 1
20260905064203 0 0 0.0 0.0 0.00 0.00 0.00 1
20260905064103 0 0 0.0 0.0 0.00 0.00 0.00 1
20260905064003 12 215 1.6 4.8 0.00 0.51 0.51 96 1088.7
20260905063903 12 219 1.6 4.8 0.00 0.51 0.51 96 1088.7
20260905063803 0 0 0.0 0.0 0.00 0.00 0.00 1
20260905063703 12 222 1.6 4.8 0.03 0.51 0.51 95 1088.7
20260905063603 12 233 1.6 4.8 0.03 0.51 0.51 95 1088.7
20260905063503 0 0 0.0 0.0 0.00 0.00 0.00 1
20260905063414 0 0 0.0 0.0 0.00 0.00 0.00 1
20260905063403 12 248 1.6 4.8 0.03 0.51 0.51 95 1088.7
20260905063318 12 247 1.6 4.8 0.05 0.51 0.51 95 1088.7
20260905063303 12 243 1.6 4.8 0.05 0.51 0.51 95 1088.7
20260905063213 0 0 0.0 0.0 0.00 0.00 0.00 1
20260905063203 12 250 1.6 6.4 0.05 0.51 0.51 95 1088.7
20260905063103 0 0 0.0 0.0 0.00 0.00 0.00 1
20260905063003 12 251 1.6 6.4 0.05 0.51 0.51 95 1088.7
20260905062903 12 247 1.6 6.4 0.05 0.51 0.51 95 1088.7
20260905062803 0 0 0.0 0.0 0.00 0.00 0.00 1
20260905062703 0 0 0.0 0.0 0.00 0.00 0.00 1
20260905062603 12 245 1.6 6.4 0.05 0.51 0.51 95 1088.7
20260905062503 12 241 1.6 6.4 0.05 0.51 0.51 95 1088.7
20260905062417 12 239 1.6 6.4 0.08 0.51 0.51 95 1088.7
20260905062403 12 240 1.6 6.4 0.08 0.51 0.51 95 1088.7
20260905062305 12 244 1.6 6.4 0.08 0.51 0.51 95 1088.7
20260905062103 0 0 0.0 0.0 0.00 0.00 0.00 1
20260905062003 12 246 1.6 6.4 0.08 0.51 0.51 95 1088.7
20260905061903 0 0 0.0 0.0 0.00 0.00 0.00 1
20260905061803 12 236 1.6 4.8 0.10 0.51 0.51 95 1088.7
20260905061703 12 261 1.6 9.7 0.10 0.51 0.51 96 1088.7
20260905061603 0 0 0.0 0.0 0.00 0.00 0.00 1
20260905061503 0 0 0.0 0.0 0.00 0.00 0.00 1
20260905061403 12 264 3.2 9.7 0.10 0.51 0.51 95 1088.7
20260905061303 0 0 0.0 0.0 0.00 0.00 0.00 1
20260905061216 12 255 3.2 9.7 0.13 0.51 0.51 95 1088.7
20260905061203 12 254 3.2 9.7 0.13 0.51 0.51 95 1088.7
20260905061103 0 0 0.0 0.0 0.00 0.00 0.00 1
20260905061018 12 251 3.2 9.7 0.13 0.51 0.51 95 1088.7
20260905061003 0 0 0.0 0.0 0.00 0.00 0.00 1
20260905060903 0 0 0.0 0.0 0.00 0.00 0.00 1
20260905060803 0 0 0.0 0.0 0.00 0.00 0.00 1
20260905060717 12 257 3.2 9.7 0.15 0.51 0.51 95 1088.7
20260905060703 12 255 3.2 9.7 0.15 0.51 0.51 95 1088.7
20260905060603 12 247 1.6 9.7 0.15 0.51 0.51 95 1088.7
20260905060504 0 0 0.0 0.0 0.00 0.00 0.00 1
20260905060403 0 0 0.0 0.0 0.00 0.00 0.00 1
20260905060303 0 0 0.0 0.0 0.00 0.00 0.00 1
20260905060203 12 281 1.6 6.4 0.15 0.51 0.51 95 1088.7
20260905060103 12 268 1.6 9.7 0.18 0.51 0.51 95 1088.7
20260905060003 12 255 3.2 12.9 0.18 0.51 0.51 95 1088.7
20260905055918 12 243 3.2 12.9 0.18 0.51 0.51 95 1088.7
20260905055903 12 239 3.2 12.9 0.18 0.51 0.51 95 1088.7
20260905055804 0 0 0.0 0.0 0.00 0.00 0.00 1
20260905055703 0 0 0.0 0.0 0.00 0.00 0.00 1
20260905055603 0 0 0.0 0.0 0.00 0.00 0.00 1
20260905055503 12 197 4.8 12.9 0.20 0.51 0.51 95 1088.7
20260905055403 12 193 4.8 12.9 0.20 0.51 0.51 95 1088.7
20260905055306 12 188 4.8 12.9 0.23 0.51 0.51 95 1088.7
20260905055203 0 0 0.0 0.0 0.00 0.00 0.00 1
20260905055103 12 182 4.8 12.9 0.23 0.51 0.51 95 1088.7
20260905055018 12 179 4.8 12.9 0.23 0.51 0.51 95 1088.7
20260905055003 0 0 0.0 0.0 0.00 0.00 0.00 1
20260905054903 12 173 4.8 12.9 0.25 0.51 0.51 95 1088.7
20260905054703 0 0 0.0 0.0 0.00 0.00 0.00 1
20260905054603 12 150 4.8 11.3 0.28 0.51 0.51 95 1088.7
20260905054503 12 149 4.8 11.3 0.28 0.51 0.51 95 1088.7
20260905054403 0 0 0.0 0.0 0.00 0.00 0.00 1
20260905054318 12 143 4.8 11.3 0.28 0.51 0.51 95 1088.7
20260905054303 12 142 4.8 11.3 0.28 0.51 0.51 95 1088.7
20260905054203 12 143 4.8 11.3 0.28 0.51 0.51 94 1088.7
20260905054003 0 0 0.0 0.0 0.00 0.00 0.00 1
20260905053903 12 143 3.2 11.3 0.28 0.51 0.51 94 1088.7
20260905053803 12 148 3.2 11.3 0.25 0.48 0.48 94 1088.7
20260905053703 12 148 3.2 11.3 0.28 0.48 0.48 94 1088.7
20260905053603 12 154 1.6 11.3 0.28 0.48 0.48 94 1088.7
20260905053503 12 163 1.6 9.7 0.28 0.48 0.48 93 1088.7
20260905053403 12 178 1.6 6.4 0.28 0.48 0.48 94 1088.7
20260905053303 12 185 1.6 4.8 0.25 0.46 0.46 94 1088.7
20260905053203 0 0 0.0 0.0 0.00 0.00 0.00 1
20260905053103 12 197 1.6 4.8 0.25 0.46 0.46 93 1088.7
20260905053003 0 0 0.0 0.0 0.00 0.00 0.00 1
20260905052918 12 233 1.6 9.7 0.25 0.46 0.46 93 1088.7
20260905052903 12 252 1.6 12.9 0.25 0.46 0.46 93 1088.7
20260905052803 12 265 1.6 12.9 0.25 0.46 0.46 93 1088.7
20260905052717 12 264 3.2 12.9 0.25 0.46 0.46 93 1088.7
20260905052703 0 0 0.0 0.0 0.00 0.00 0.00 1
20260905052603 12 271 3.2 12.9 0.25 0.46 0.46 93 1088.7
20260905052503 0 0 0.0 0.0 0.00 0.00 0.00 1
20260905052403 12 273 4.8 12.9 0.23 0.43 0.43 93 1088.7
20260905052306 12 274 4.8 12.9 0.23 0.43 0.43 93 1088.7
20260905052218 12 278 4.8 12.9 0.23 0.43 0.43 93 1088.7
20260905052203 12 280 4.8 12.9 0.23 0.43 0.43 93 1088.7
20260905052103 0 0 0.0 0.0 0.00 0.00 0.00 1
20260905052017 12 278 4.8 12.9 0.23 0.43 0.43 93 1088.7
20260905052003 0 0 0.0 0.0 0.00 0.00 0.00 1
20260905051903 12 272 4.8 12.9 0.23 0.43 0.43 93 1088.7
20260905051816 12 270 4.8 11.3 0.20 0.41 0.41 93 1088.7
20260905051703 12 276 3.2 11.3 0.20 0.41 0.41 93 1088.7
20260905051618 12 269 3.2 11.3 0.20 0.41 0.41 93 1088.7
20260905051603 0 0 0.0 0.0 0.00 0.00 0.00 1
20260905051503 12 268 3.2 11.3 0.20 0.41 0.41 93 1088.7
20260905051417 12 265 3.2 11.3 0.20 0.41 0.41 93 1088.7
20260905051318 12 263 3.2 11.3 0.18 0.38 0.41 93 1088.7
20260905051303 12 259 3.2 9.7 0.18 0.38 0.38 93 1088.7
20260905051203 0 0 0.0 0.0 0.00 0.00 0.00 1
20260905051103 0 0 0.0 0.0 0.00 0.00 0.00 1
20260905051003 0 0 0.0 0.0 0.00 0.00 0.00 1
20260905050903 12 248 1.6 9.7 0.18 0.38 0.38 93 1088.7
20260905050803 0 0 0.0 0.0 0.00 0.00 0.00 1
20260905050703 12 239 3.2 11.3 0.15 0.36 0.38 93 1088.7
20260905050603 12 237 3.2 11.3 0.15 0.36 0.36 93 1088.7
20260905050503 0 0 0.0 0.0 0.00 0.00 0.00 1
20260905050417 12 236 3.2 11.3 0.15 0.36 0.36 92 1088.7
20260905050403 0 0 0.0 0.0 0.00 0.00 0.00 1
20260905050303 0 0 0.0 0.0 0.00 0.00 0.00 1
20260905050203 0 0 0.0 0.0 0.00 0.00 0.00 1
20260905050117 12 235 3.2 11.3 0.13 0.33 0.33 92 1088.7
20260905050103 12 236 3.2 11.3 0.13 0.33 0.33 92 1088.7
20260905050017 12 244 4.8 12.9 0.13 0.33 0.33 92 1088.7
20260905050003 0 0 0.0 0.0 0.00 0.00 0.00 1
20260905045903 0 0 0.0 0.0 0.00 0.00 0.00 1
20260905045803 0 0 0.0 0.0 0.00 0.00 0.00 1
20260905045703 0 0 0.0 0.0 0.00 0.00 0.00 1
20260905045603 12 261 4.8 20.9 0.10 0.30 0.30 92 1088.7
20260905045503 12 267 6.4 20.9 0.10 0.30 0.30 92 1088.7
20260905045403 0 0 0.0 0.0 0.00 0.00 0.00 1
20260905045305 0 0 0.0 0.0 0.00 0.00 0.00 1
20260905045203 12 277 8.0 22.5 0.08 0.28 0.28 92 1088.7
20260905045116 12 279 8.0 22.5 0.08 0.28 0.28 92 1088.7
20260905045103 0 0 0.0 0.0 0.00 0.00 0.00 1
20260905045003 12 276 8.0 22.5 0.08 0.28 0.28 91 1088.7
20260905044918 12 277 8.0 22.5 0.05 0.25 0.25 91 1088.7
20260905044903 0 0 0.0 0.0 0.00 0.00 0.00 1
20260905044803 12 273 8.0 22.5 0.05 0.25 0.25 91 1088.7
20260905044717 12 274 6.4 22.5 0.05 0.25 0.25 91 1088.7
20260905044703 0 0 0.0 0.0 0.00 0.00 0.00 1
20260905044618 13 274 6.4 22.5 0.03 0.23 0.25 91 1088.7
20260905044603 0 0 0.0 0.0 0.00 0.00 0.00 1
20260905044503 0 0 0.0 0.0 0.00 0.00 0.00 1
20260905044403 0 0 0.0 0.0 0.00 0.00 0.00 1
20260905044303 13 263 4.8 14.5 0.03 0.23 0.23 92 1088.7
20260905044203 13 261 4.8 14.5 0.03 0.23 0.23 92 1088.7
20260905044104 13 263 4.8 14.5 0.03 0.23 0.23 92 1088.7
20260905044017 13 268 4.8 14.5 0.03 0.23 0.23 92 1088.7
20260905044003 13 265 4.8 14.5 0.03 0.23 0.23 92 1088.7
20260905043917 13 264 4.8 14.5 0.05 0.23 0.23 92 1088.7
20260905043903 0 0 0.0 0.0 0.00 0.00 0.00 1
20260905043803 0 0 0.0 0.0 0.00 0.00 0.00 1
20260905043717 13 270 4.8 14.5 0.03 0.20 0.23 92 1088.7
20260905043713 0 0 0.0 0.0 0.00 0.00 0.00 1
20260905043603 13 270 4.8 14.5 0.03 0.20 0.20 92 1088.7
20260905043513 0 0 0.0 0.0 0.00 0.00 0.00 1
20260905043403 0 0 0.0 0.0 0.00 0.00 0.00 1
20260905043303 13 270 4.8 9.7 0.03 0.20 0.20 92 1088.7
20260905043203 0 0 0.0 0.0 0.00 0.00 0.00 1
20260905043103 13 261 4.8 9.7 0.05 0.20 0.20 92 1088.7
20260905043017 13 258 4.8 9.7 0.05 0.20 0.20 92 1088.7
20260905043014 0 0 0.0 0.0 0.00 0.00 0.00 1
20260905043003 13 260 4.8 9.7 0.05 0.20 0.20 92 1088.7
20260905042903 0 0 0.0 0.0 0.00 0.00 0.00 1
20260905042703 13 260 3.2 9.7 0.05 0.20 0.20 93 1088.7
20260905042603 0 0 0.0 0.0 0.00 0.00 0.00 1
20260905042503 0 0 0.0 0.0 0.00 0.00 0.00 1
20260905042403 0 0 0.0 0.0 0.00 0.00 0.00 1
20260905042306 0 0 0.0 0.0 0.00 0.00 0.00 1
20260905042203 13 271 3.2 6.4 0.05 0.20 0.20 93 1088.7
20260905042103 0 0 0.0 0.0 0.00 0.00 0.00 1
20260905042003 0 0 0.0 0.0 0.00 0.00 0.00 1
20260905041903 0 0 0.0 0.0 0.00 0.00 0.00 1
20260905041803 13 274 3.2 6.4 0.05 0.20 0.20 93 1088.7
20260905041703 13 274 3.2 6.4 0.05 0.20 0.20 93 1088.7
20260905041603 13 274 3.2 9.7 0.05 0.20 0.20 93 1088.7
20260905041503 0 0 0.0 0.0 0.00 0.00 0.00 1
20260905041403 13 268 3.2 9.7 0.05 0.20 0.20 93 1088.7
20260905041303 13 264 3.2 9.7 0.05 0.20 0.20 93 1088.7
20260905041203 0 0 0.0 0.0 0.00 0.00 0.00 1
20260905041103 13 258 1.6 9.7 0.05 0.20 0.20 93 1088.7
20260905041003 13 256 1.6 9.7 0.05 0.20 0.20 93 1088.7
20260905040903 13 254 3.2 9.7 0.05 0.20 0.20 93 1088.7
20260905040818 13 253 3.2 9.7 0.05 0.20 0.20 93 1088.7
20260905040803 0 0 0.0 0.0 0.00 0.00 0.00 1
20260905040703 0 0 0.0 0.0 0.00 0.00 0.00 1
20260905040603 0 0 0.0 0.0 0.00 0.00 0.00 1
20260905040503 0 0 0.0 0.0 0.00 0.00 0.00 1
20260905040403 0 0 0.0 0.0 0.00 0.00 0.00 1
20260905040303 13 257 1.6 6.4 0.05 0.20 0.20 92 1088.7
20260905040203 0 0 0.0 0.0 0.00 0.00 0.00 1
20260905040103 13 258 1.6 6.4 0.05 0.20 0.20 92 1088.7
20260905040003 0 0 0.0 0.0 0.00 0.00 0.00 1
20260905035903 0 0 0.0 0.0 0.00 0.00 0.00 1
20260905035818 13 254 1.6 4.8 0.08 0.20 0.20 92 1088.7
20260905035803 0 0 0.0 0.0 0.00 0.00 0.00 1
20260905035703 0 0 0.0 0.0 0.00 0.00 0.00 1
20260905035603 0 0 0.0 0.0 0.00 0.00 0.00 1
20260905035503 0 0 0.0 0.0 0.00 0.00 0.00 1
20260905035403 0 0 0.0 0.0 0.00 0.00 0.00 1
20260905035306 0 0 0.0 0.0 0.00 0.00 0.00 1
20260905035203 0 0 0.0 0.0 0.00 0.00 0.00 1
20260905035103 0 0 0.0 0.0 0.00 0.00 0.00 1
20260905035003 0 0 0.0 0.0 0.00 0.00 0.00 1
20260905034903 0 0 0.0 0.0 0.00 0.00 0.00 1
20260905034803 13 206 0.0 3.2 0.15 0.20 0.20 92 1088.7
20260905034703 0 0 0.0 0.0 0.00 0.00 0.00 1
20260905034603 0 0 0.0 0.0 0.00 0.00 0.00 1
20260905034503 0 0 0.0 0.0 0.00 0.00 0.00 1
20260905034403 0 0 0.0 0.0 0.00 0.00 0.00 1
20260905034317 13 251 1.6 4.8 0.15 0.20 0.20 91 1088.7
20260905034303 0 0 0.0 0.0 0.00 0.00 0.00 1
20260905034203 0 0 0.0 0.0 0.00 0.00 0.00 1
20260905034103 0 0 0.0 0.0 0.00 0.00 0.00 1
20260905034003 0 0 0.0 0.0 0.00 0.00 0.00 1
20260905033903 13 272 1.6 4.8 0.15 0.18 0.18 92 1088.7
20260905033803 13 268 1.6 4.8 0.15 0.18 0.18 92 1088.7
20260905033703 13 263 1.6 4.8 0.15 0.18 0.18 92 1088.7
20260905033603 0 0 0.0 0.0 0.00 0.00 0.00 1
20260905033518 13 254 1.6 4.8 0.15 0.18 0.18 92 1088.7
20260905033503 0 0 0.0 0.0 0.00 0.00 0.00 1
20260905033403 13 248 1.6 4.8 0.15 0.18 0.18 92 1088.7
20260905033203 13 236 1.6 4.8 0.13 0.15 0.15 92 1088.7
20260905033103 13 234 1.6 4.8 0.13 0.15 0.15 92 1088.7
20260905033017 13 232 1.6 4.8 0.13 0.15 0.15 92 1088.7
20260905033003 13 232 1.6 4.8 0.13 0.15 0.15 91 1088.7
20260905032903 13 245 1.6 4.8 0.13 0.15 0.15 91 1088.7
20260905032803 0 0 0.0 0.0 0.00 0.00 0.00 1
20260905032703 0 0 0.0 0.0 0.00 0.00 0.00 1
20260905032603 13 266 1.6 6.4 0.13 0.15 0.15 91 1088.7
20260905032503 0 0 0.0 0.0 0.00 0.00 0.00 1
20260905032403 0 0 0.0 0.0 0.00 0.00 0.00 1
20260905032306 13 267 1.6 6.4 0.13 0.15 0.15 91 1088.7
20260905032203 0 0 0.0 0.0 0.00 0.00 0.00 1
20260905032103 13 268 3.2 6.4 0.13 0.15 0.15 91 1088.7
20260905032003 13 270 3.2 6.4 0.13 0.15 0.15 91 1088.7
20260905031903 13 270 3.2 6.4 0.13 0.15 0.15 91 1088.7
20260905031803 0 0 0.0 0.0 0.00 0.00 0.00 1
20260905031703 0 0 0.0 0.0 0.00 0.00 0.00 1
20260905031603 0 0 0.0 0.0 0.00 0.00 0.00 1
20260905031503 13 279 3.2 6.4 0.13 0.15 0.15 91 1088.7
20260905031418 13 281 3.2 6.4 0.13 0.15 0.15 91 1088.7
20260905031403 13 282 3.2 6.4 0.13 0.15 0.15 91 1088.7
20260905031303 0 0 0.0 0.0 0.00 0.00 0.00 1
20260905031203 0 0 0.0 0.0 0.00 0.00 0.00 1
20260905031118 13 290 3.2 6.4 0.13 0.15 0.15 91 1088.5
20260905031103 13 288 3.2 6.4 0.13 0.15 0.15 91 1088.5
20260905031003 14 284 3.2 6.4 0.13 0.15 0.15 90 1088.4
20260905030903 0 0 0.0 0.0 0.00 0.00 0.00 1
20260905030803 0 0 0.0 0.0 0.00 0.00 0.00 1
20260905030703 0 0 0.0 0.0 0.00 0.00 0.00 1
20260905030617 14 264 3.2 6.4 0.13 0.15 0.15 90 1088.5
20260905030603 14 263 3.2 6.4 0.13 0.15 0.15 90 1088.5
20260905030503 14 248 3.2 6.4 0.13 0.15 0.15 91 1088.7
20260905030418 14 248 3.2 9.7 0.13 0.15 0.15 90 1088.4
20260905030403 0 0 0.0 0.0 0.00 0.00 0.00 1
20260905030303 0 0 0.0 0.0 0.00 0.00 0.00 1
20260905030016 14 252 4.8 16.1 0.10 0.13 0.15 90 1088.7
20260905030003 14 252 4.8 16.1 0.10 0.13 0.13 90 1088.7
20260905025903 14 258 4.8 16.1 0.10 0.13 0.13 90 1088.7
20260905025803 0 0 0.0 0.0 0.00 0.00 0.00 1
20260905025703 14 274 4.8 16.1 0.10 0.10 0.10 89 1088.7
20260905025603 14 277 4.8 16.1 0.10 0.10 0.10 89 1088.7
20260905025503 14 282 6.4 16.1 0.10 0.10 0.10 89 1088.7
20260905025403 0 0 0.0 0.0 0.00 0.00 0.00 1
20260905025306 0 0 0.0 0.0 0.00 0.00 0.00 1
20260905025203 14 289 4.8 11.3 0.08 0.08 0.08 89 1088.7
20260905025103 0 0 0.0 0.0 0.00 0.00 0.00 1
20260905025003 14 285 4.8 11.3 0.05 0.05 0.05 90 1088.7
20260905024903 14 291 4.8 11.3 0.05 0.05 0.05 89 1088.7
20260905024803 0 0 0.0 0.0 0.00 0.00 0.00 1
20260905024718 14 286 4.8 11.3 0.05 0.05 0.05 89 1088.7
20260905024703 0 0 0.0 0.0 0.00 0.00 0.00 1
20260905024603 0 0 0.0 0.0 0.00 0.00 0.00 1
20260905024503 0 0 0.0 0.0 0.00 0.00 0.00 1
20260905024403 15 279 4.8 11.3 0.05 0.05 0.05 89 1088.7
20260905024303 15 279 4.8 11.3 0.05 0.05 0.05 89 1088.7
20260905024203 0 0 0.0 0.0 0.00 0.00 0.00 1
20260905024103 15 281 4.8 11.3 0.05 0.05 0.05 89 1088.7
20260905024003 15 280 4.8 11.3 0.05 0.05 0.05 89 1088.7
20260905023903 15 277 4.8 11.3 0.03 0.03 0.03 89 1088.7
20260905023803 0 0 0.0 0.0 0.00 0.00 0.00 1
20260905023703 0 0 0.0 0.0 0.00 0.00 0.00 1
20260905023603 15 266 3.2 11.3 0.03 0.03 0.03 89 1088.3
20260905023503 0 0 0.0 0.0 0.00 0.00 0.00 1
20260905023418 15 266 3.2 9.7 0.03 0.03 0.03 89 1088.7
20260905023403 0 0 0.0 0.0 0.00 0.00 0.00 1
20260905023303 15 263 3.2 6.4 0.03 0.03 0.03 89 1088.5
20260905023203 0 0 0.0 0.0 0.00 0.00 0.00 1
20260905023103 15 262 3.2 6.4 0.03 0.03 0.03 89 1088.3
20260905023003 15 261 3.2 12.9 0.03 0.03 0.03 89 1088.3
20260905022917 15 260 3.2 12.9 0.03 0.03 0.03 89 1088.4
20260905022903 15 258 3.2 12.9 0.03 0.03 0.03 89 1088.4
20260905022804 0 0 0.0 0.0 0.00 0.00 0.00 1
20260905022713 0 0 0.0 0.0 0.00 0.00 0.00 1
20260905022603 0 0 0.0 0.0 0.00 0.00 0.00 1
20260905022503 15 263 3.2 12.9 0.03 0.03 0.03 89 1088.3
20260905022403 15 263 4.8 12.9 0.03 0.03 0.03 88 1088.5
20260905022316 15 263 4.8 12.9 0.03 0.03 0.03 88 1088.3
20260905022306 0 0 0.0 0.0 0.00 0.00 0.00 1
20260905022203 0 0 0.0 0.0 0.00 0.00 0.00 1
20260905022103 0 0 0.0 0.0 0.00 0.00 0.00 1
20260905022003 0 0 0.0 0.0 0.00 0.00 0.00 1
20260905021917 15 261 3.2 11.3 0.03 0.03 0.03 88 1088.4
20260905021903 0 0 0.0 0.0 0.00 0.00 0.00 1
20260905021803 0 0 0.0 0.0 0.00 0.00 0.00 1
20260905021718 15 255 1.6 11.3 0.03 0.03 0.03 87 1088.5
20260905021703 0 0 0.0 0.0 0.00 0.00 0.00 1
20260905021603 15 252 1.6 11.3 0.03 0.03 0.03 87 1088.2
20260905021503 0 0 0.0 0.0 0.00 0.00 0.00 1
20260905021418 15 255 1.6 11.3 0.03 0.03 0.03 88 1088.1
20260905021404 0 0 0.0 0.0 0.00 0.00 0.00 1
20260905021318 15 242 1.6 6.4 0.03 0.03 0.03 87 1087.9
20260905021303 15 234 0.0 6.4 0.03 0.03 0.03 87 1087.9
20260905021217 15 239 0.0 4.8 0.03 0.03 0.03 86 1088.1
20260905021203 0 0 0.0 0.0 0.00 0.00 0.00 1
20260905021103 0 0 0.0 0.0 0.00 0.00 0.00 1
20260905021003 0 0 0.0 0.0 0.00 0.00 0.00 1
20260905020903 15 256 1.6 6.4 0.03 0.03 0.03 85 1088.2
20260905020814 0 0 0.0 0.0 0.00 0.00 0.00 1
20260905020803 15 258 1.6 6.4 0.03 0.03 0.03 84 1088.1
20260905020703 15 262 1.6 6.4 0.03 0.03 0.03 84 1087.8
20260905020604 15 259 1.6 6.4 0.03 0.03 0.03 84 1087.8
20260905020503 0 0 0.0 0.0 0.00 0.00 0.00 1
20260905020403 0 0 0.0 0.0 0.00 0.00 0.00 1
20260905020303 15 258 1.6 9.7 0.03 0.03 0.03 84 1088.2
20260905020203 0 0 0.0 0.0 0.00 0.00 0.00 1
20260905020103 0 0 0.0 0.0 0.00 0.00 0.00 1
20260905020004 16 254 3.2 12.9 0.03 0.03 0.03 83 1088.1
20260905015903 16 257 4.8 12.9 0.03 0.03 0.03 84 1088.3
20260905015803 0 0 0.0 0.0 0.00 0.00 0.00 1
20260905015704 16 260 4.8 12.9 0.00 0.00 0.00 83 1088.3
20260905015603 0 0 0.0 0.0 0.00 0.00 0.00 1
20260905015503 0 0 0.0 0.0 0.00 0.00 0.00 1
20260905015403 16 266 6.4 12.9 0.00 0.00 0.00 83 1087.9
20260905015306 0 0 0.0 0.0 0.00 0.00 0.00 1
20260905015204 0 0 0.0 0.0 0.00 0.00 0.00 1
20260905015103 0 0 0.0 0.0 0.00 0.00 0.00 1
20260905015003 0 0 0.0 0.0 0.00 0.00 0.00 1
20260905014903 0 0 0.0 0.0 0.00 0.00 0.00 1
20260905014803 16 278 3.2 11.3 0.00 0.00 0.00 81 1087.5
20260905014718 16 285 3.2 11.3 0.00 0.00 0.00 81 1087.6
20260905014703 0 0 0.0 0.0 0.00 0.00 0.00 1
20260905014603 0 0 0.0 0.0 0.00 0.00 0.00 1
20260905014503 0 0 0.0 0.0 0.00 0.00 0.00 1
20260905014403 16 301 3.2 12.9 0.00 0.00 0.00 81 1087.7
20260905014304 16 310 3.2 12.9 0.00 0.00 0.00 81 1087.7
20260905014203 16 314 3.2 12.9 0.00 0.00 0.00 81 1087.7
20260905014103 16 316 3.2 12.9 0.00 0.00 0.00 81 1087.8
20260905014003 0 0 0.0 0.0 0.00 0.00 0.00 1
20260905013903 16 307 4.8 12.9 0.00 0.00 0.00 81 1087.8
20260905013804 0 0 0.0 0.0 0.00 0.00 0.00 1
20260905013703 16 308 3.2 12.9 0.00 0.00 0.00 81 1087.8
20260905013603 0 0 0.0 0.0 0.00 0.00 0.00 1
20260905013503 0 0 0.0 0.0 0.00 0.00 0.00 1
20260905013417 16 314 3.2 11.3 0.00 0.00 0.00 80 1087.7
20260905013403 0 0 0.0 0.0 0.00 0.00 0.00 1
20260905013303 16 317 4.8 11.3 0.00 0.00 0.00 81 1087.7
20260905013203 0 0 0.0 0.0 0.00 0.00 0.00 1
20260905013103 0 0 0.0 0.0 0.00 0.00 0.00 1
20260905013003 0 0 0.0 0.0 0.00 0.00 0.00 1
20260905012903 16 321 4.8 11.3 0.00 0.00 0.00 80 1087.9
20260905012803 16 323 4.8 11.3 0.00 0.00 0.00 80 1087.8
20260905012703 16 311 4.8 12.9 0.00 0.00 0.00 80 1087.8
20260905012603 16 307 6.4 12.9 0.00 0.00 0.00 80 1087.8
20260905012503 0 0 0.0 0.0 0.00 0.00 0.00 1
20260905012403 16 295 4.8 12.9 0.00 0.00 0.00 80 1087.9
20260905012318 16 285 4.8 12.9 0.00 0.00 0.00 80 1087.7
20260905012306 0 0 0.0 0.0 0.00 0.00 0.00 1
20260905012203 16 280 4.8 12.9 0.00 0.00 0.00 79 1088.1
20260905012103 0 0 0.0 0.0 0.00 0.00 0.00 1
20260905012003 16 279 6.4 14.5 0.00 0.00 0.00 79 1087.8
20260905011903 0 0 0.0 0.0 0.00 0.00 0.00 1
20260905011817 16 273 6.4 14.5 0.00 0.00 0.00 79 1087.9
20260905011803 0 0 0.0 0.0 0.00 0.00 0.00 1
20260905011703 0 0 0.0 0.0 0.00 0.00 0.00 1
20260905011603 0 0 0.0 0.0 0.00 0.00 0.00 1
20260905011503 0 0 0.0 0.0 0.00 0.00 0.00 1
20260905011403 16 293 6.4 14.5 0.00 0.00 0.00 78 1087.8
20260905011303 0 0 0.0 0.0 0.00 0.00 0.00 1
20260905011203 0 0 0.0 0.0 0.00 0.00 0.00 1
20260905011103 0 0 0.0 0.0 0.00 0.00 0.00 1
20260905011003 0 0 0.0 0.0 0.00 0.00 0.00 1
20260905010903 16 300 4.8 16.1 0.00 0.00 0.00 78 1087.7
20260905010803 17 300 4.8 16.1 0.00 0.00 0.00 77 1087.8
20260905010703 17 298 4.8 16.1 0.00 0.00 0.00 77 1087.9
20260905010603 17 299 6.4 16.1 0.00 0.00 0.00 77 1087.7
20260905010517 17 301 6.4 16.1 0.00 0.00 0.00 77 1087.6
20260905010503 0 0 0.0 0.0 0.00 0.00 0.00 1
20260905010403 0 0 0.0 0.0 0.00 0.00 0.00 1
20260905010303 0 0 0.0 0.0 0.00 0.00 0.00 1
20260905010213 0 0 0.0 0.0 0.00 0.00 0.00 1
20260905010203 17 308 6.4 29.0 0.00 0.00 0.00 76 1087.9
20260905010103 17 312 6.4 29.0 0.00 0.00 0.00 76 1087.9
20260905010003 17 314 8.0 29.0 0.00 0.00 0.00 76 1087.8
20260905005903 17 310 9.7 29.0 0.00 0.00 0.00 76 1087.9
20260905005803 0 0 0.0 0.0 0.00 0.00 0.00 1
20260905005704 0 0 0.0 0.0 0.00 0.00 0.00 1
20260905005603 0 0 0.0 0.0 0.00 0.00 0.00 1
20260905005503 17 304 11.3 29.0 0.00 0.00 0.00 76 1087.9
20260905005403 0 0 0.0 0.0 0.00 0.00 0.00 1
20260905005306 17 297 11.3 25.7 0.00 0.00 0.00 76 1088.0
20260905005203 17 295 11.3 25.7 0.00 0.00 0.00 76 1087.7
20260905005103 0 0 0.0 0.0 0.00 0.00 0.00 1
20260905005003 17 289 11.3 25.7 0.00 0.00 0.00 75 1087.9
20260905004903 17 286 12.9 24.1 0.00 0.00 0.00 75 1087.8
20260905004803 17 288 12.9 24.1 0.00 0.00 0.00 75 1087.8
20260905004703 17 284 12.9 24.1 0.00 0.00 0.00 75 1087.7
20260905004603 17 286 12.9 24.1 0.00 0.00 0.00 75 1087.9
20260905004503 0 0 0.0 0.0 0.00 0.00 0.00 1
20260905004417 17 296 11.3 24.1 0.00 0.00 0.00 75 1087.7
20260905004414 0 0 0.0 0.0 0.00 0.00 0.00 1
20260905004403 17 297 11.3 24.1 0.00 0.00 0.00 75 1087.7
20260905004303 17 300 11.3 24.1 0.00 0.00 0.00 75 1087.6
20260905004213 0 0 0.0 0.0 0.00 0.00 0.00 1
20260905004103 17 300 11.3 24.1 0.00 0.00 0.00 76 1087.7
20260905004003 17 302 11.3 24.1 0.00 0.00 0.00 75 1087.7
20260905003903 17 305 11.3 25.7 0.00 0.00 0.00 75 1087.5
20260905003817 17 307 11.3 25.7 0.00 0.00 0.00 75 1087.6
20260905003803 0 0 0.0 0.0 0.00 0.00 0.00 1
20260905003703 0 0 0.0 0.0 0.00 0.00 0.00 1
20260905003603 0 0 0.0 0.0 0.00 0.00 0.00 1
20260905003503 0 0 0.0 0.0 0.00 0.00 0.00 1
20260905003403 0 0 0.0 0.0 0.00 0.00 0.00 1
20260905003303 17 300 14.5 35.4 0.00 0.00 0.00 76 1087.4
20260905003203 17 305 14.5 35.4 0.00 0.00 0.00 77 1087.3
20260905003113 0 0 0.0 0.0 0.00 0.00 0.00 1
20260905003103 17 309 14.5 35.4 0.00 0.00 0.00 76 1087.3
20260905003017 17 309 14.5 35.4 0.00 0.00 0.00 77 1087.1
20260905003003 0 0 0.0 0.0 0.00 0.00 0.00 1
20260905002903 17 309 14.5 35.4 0.00 0.00 0.00 77 1087.3
20260905002803 0 0 0.0 0.0 0.00 0.00 0.00 1
20260905002717 17 315 14.5 33.8 0.00 0.00 0.00 77 1087.3
20260905002704 17 317 14.5 33.8 0.00 0.00 0.00 77 1087.3
20260905002603 0 0 0.0 0.0 0.00 0.00 0.00 1
20260905002503 0 0 0.0 0.0 0.00 0.00 0.00 1
20260905002403 0 0 0.0 0.0 0.00 0.00 0.00 1
20260905002306 17 323 12.9 25.7 0.00 0.00 0.00 77 1087.4
20260905002203 0 0 0.0 0.0 0.00 0.00 0.00 1
20260905002103 0 0 0.0 0.0 0.00 0.00 0.00 1
20260905002003 17 324 12.9 30.6 0.00 0.00 0.00 77 1087.3
20260905001903 0 0 0.0 0.0 0.00 0.00 0.00 1
20260905001803 0 0 0.0 0.0 0.00 0.00 0.00 1
20260905001703 17 325 14.5 33.8 0.00 0.00 0.00 77 1086.9
20260905001603 0 0 0.0 0.0 0.00 0.00 0.00 1
20260905001503 17 335 14.5 33.8 0.00 0.00 0.00 77 1086.8
20260905001414 0 0 0.0 0.0 0.00 0.00 0.00 1
20260905001403 17 339 14.5 33.8 0.00 0.00 0.00 77 1087.0
20260905001303 0 0 0.0 0.0 0.00 0.00 0.00 1
20260905001218 17 337 16.1 33.8 0.00 0.00 0.00 77 1086.9
20260905001203 17 338 16.1 33.8 0.00 0.00 0.00 77 1086.9
20260905001103 0 0 0.0 0.0 0.00 0.00 0.00 1
20260905001003 0 0 0.0 0.0 0.00 0.00 0.00 1
20260905000903 0 0 0.0 0.0 0.00 0.00 0.00 1
20260905000816 17 355 17.7 40.2 0.00 0.00 0.00 76 1086.4
20260905000803 17 354 17.7 40.2 0.00 0.00 0.00 76 1086.4
20260905000703 17 355 17.7 40.2 0.00 0.00 0.00 76 1086.9
20260905000603 0 0 0.0 0.0 0.00 0.00 0.00 1
20260905000518 18 351 17.7 40.2 0.00 0.00 0.00 76 1086.6
20260905000503 0 0 0.0 0.0 0.00 0.00 0.00 1
20260905000403 18 347 17.7 40.2 0.00 0.00 0.00 76 1086.5
20260905000318 18 348 17.7 40.2 0.00 0.00 0.00 76 1086.8
20260905000213 0 0 0.0 0.0 0.00 0.00 0.00 1
20260905000204 18 347 17.7 40.2 0.00 0.00 0.00 76 1086.6
20260905000103 0 0 0.0 0.0 0.00 0.00 0.00 1
20260905000014 0 0 0.0 0.0 0.00 0.00 0.00 1
20260905000003 18 338 17.7 35.4 0.00 0.00 0.00 76 1086.4
20260904235903 18 332 16.1 35.4 0.00 0.00 0.00 76 1086.5
20260904235803 18 324 16.1 35.4 0.00 0.00 0.00 76 1086.5
20260904235703 0 0 0.0 0.0 0.00 0.00 0.00 1
20260904235618 18 309 14.5 35.4 0.00 0.00 0.00 77 1086.2
20260904235603 0 0 0.0 0.0 0.00 0.00 0.00 1
20260904235513 0 0 0.0 0.0 0.00 0.00 0.00 1
20260904235503 18 306 14.5 35.4 0.00 0.00 0.00 78 1086.1
20260904235403 0 0 0.0 0.0 0.00 0.00 0.00 1
20260904235306 17 298 12.9 35.4 0.00 0.00 0.00 79 1086.0
20260904235203 0 0 0.0 0.0 0.00 0.00 0.00 1
20260904235103 17 290 11.3 30.6 0.00 0.00 0.00 81 1085.9
20260904235017 17 289 9.7 29.0 0.00 0.00 0.00 82 1085.9
20260904235004 0 0 0.0 0.0 0.00 0.00 0.00 1
20260904234903 16 283 8.0 29.0 0.00 0.00 0.00 83 1085.9
20260904234803 0 0 0.0 0.0 0.00 0.00 0.00 1
20260904234703 0 0 0.0 0.0 0.00 0.00 0.00 1
20260904234603 16 277 3.2 16.1 0.00 0.00 0.00 85 1085.9
20260904234503 15 280 3.2 11.3 0.00 0.00 0.00 86 1085.6
20260904234403 15 278 3.2 9.7 0.00 0.00 0.00 86 1085.6
20260904234303 0 0 0.0 0.0 0.00 0.00 0.00 1
20260904234203 15 281 1.6 6.4 0.00 0.00 0.00 86 1085.4
20260904234104 0 0 0.0 0.0 0.00 0.00 0.00 1
20260904234003 0 0 0.0 0.0 0.00 0.00 0.00 1
20260904233903 0 0 0.0 0.0 0.00 0.00 0.00 1
20260904233803 15 276 0.0 4.8 0.00 0.00 0.00 86 1085.3
20260904233703 15 276 0.0 4.8 0.00 0.00 0.00 86 1085.2
20260904233603 0 0 0.0 0.0 0.00 0.00 0.00 1
20260904233503 0 0 0.0 0.0 0.00 0.00 0.00 1
20260904233403 15 274 0.0 4.8 0.00 0.00 0.00 84 1085.2
20260904233303 0 0 0.0 0.0 0.00 0.00 0.00 1
20260904233203 15 0 0.0 0.0 0.00 0.00 0.00 85 1085.0
20260904233103 15 0 0.0 0.0 0.00 0.00 0.00 84 1084.7
20260904233003 15 0 0.0 0.0 0.00 0.00 0.00 84 1085.0
20260904232903 15 0 0.0 0.0 0.00 0.00 0.00 85 1085.0
20260904232803 15 0 0.0 0.0 0.00 0.00 0.00 84 1084.9
20260904232703 0 0 0.0 0.0 0.00 0.00 0.00 1
20260904232603 15 0 0.0 0.0 0.00 0.00 0.00 84 1084.7
20260904232503 15 0 0.0 0.0 0.00 0.00 0.00 84 1085.1
20260904232403 0 0 0.0 0.0 0.00 0.00 0.00 1
20260904232306 0 0 0.0 0.0 0.00 0.00 0.00 1
20260904232203 0 0 0.0 0.0 0.00 0.00 0.00 1
20260904232103 15 0 0.0 0.0 0.00 0.00 0.00 83 1084.9
20260904232003 15 0 0.0 0.0 0.00 0.00 0.00 83 1085.0
20260904231903 15 0 0.0 0.0 0.00 0.00 0.00 83 1084.9
20260904231803 0 0 0.0 0.0 0.00 0.00 0.00 1
20260904231703 0 0 0.0 0.0 0.00 0.00 0.00 1
20260904231603 15 206 0.0 4.8 0.00 0.00 0.00 83 1085.0
20260904231503 15 206 0.0 4.8 0.00 0.00 0.00 83 1085.0
20260904231403 0 0 0.0 0.0 0.00 0.00 0.00 1
20260904231303 15 206 0.0 4.8 0.00 0.00 0.00 83 1085.0
20260904231203 0 0 0.0 0.0 0.00 0.00 0.00 1
20260904231103 16 206 0.0 4.8 0.00 0.00 0.00 83 1085.0
20260904231003 0 0 0.0 0.0 0.00 0.00 0.00 1
20260904230903 16 206 0.0 4.8 0.00 0.00 0.00 83 1085.0
20260904230804 16 206 0.0 4.8 0.00 0.00 0.00 83 1084.7
20260904230703 0 0 0.0 0.0 0.00 0.00 0.00 1
20260904230603 0 0 0.0 0.0 0.00 0.00 0.00 1
20260904230503 16 0 0.0 0.0 0.00 0.00 0.00 83 1085.0
20260904230403 0 0 0.0 0.0 0.00 0.00 0.00 1
20260904230303 0 0 0.0 0.0 0.00 0.00 0.00 1
20260904230203 16 0 0.0 0.0 0.00 0.00 0.00 83 1085.1
20260904230003 0 0 0.0 0.0 0.00 0.00 0.00 1
20260904225803 16 0 0.0 0.0 0.00 0.00 0.00 83 1084.9
20260904225703 0 0 0.0 0.0 0.00 0.00 0.00 1
20260904225617 16 0 0.0 0.0 0.00 0.00 0.00 83 1084.7
20260904225603 0 0 0.0 0.0 0.00 0.00 0.00 1
20260904225503 0 0 0.0 0.0 0.00 0.00 0.00 1
20260904225403 0 0 0.0 0.0 0.00 0.00 0.00 1
20260904225305 16 197 0.0 3.2 0.00 0.00 0.00 83 1084.7
20260904225203 0 0 0.0 0.0 0.00 0.00 0.00 1
20260904225103 0 0 0.0 0.0 0.00 0.00 0.00 1
20260904225003 0 0 0.0 0.0 0.00 0.00 0.00 1
20260904224903 0 0 0.0 0.0 0.00 0.00 0.00 1
20260904224803 0 0 0.0 0.0 0.00 0.00 0.00 1
20260904224713 0 0 0.0 0.0 0.00 0.00 0.00 1
20260904224703 16 197 0.0 3.2 0.00 0.00 0.00 83 1085.0
20260904224603 16 197 0.0 3.2 0.00 0.00 0.00 83 1084.9
20260904224518 16 221 0.0 3.2 0.00 0.00 0.00 83 1085.0
20260904224503 16 198 0.0 1.6 0.00 0.00 0.00 83 1085.0
20260904224403 16 0 0.0 0.0 0.00 0.00 0.00 83 1084.9
20260904224303 0 0 0.0 0.0 0.00 0.00 0.00 1
20260904224203 16 213 0.0 3.2 0.00 0.00 0.00 83 1084.9
20260904224103 0 0 0.0 0.0 0.00 0.00 0.00 1
20260904224003 0 0 0.0 0.0 0.00 0.00 0.00 1
20260904223903 16 188 0.0 6.4 0.00 0.00 0.00 84 1084.9
20260904223803 16 187 0.0 6.4 0.00 0.00 0.00 83 1084.7
20260904223703 0 0 0.0 0.0 0.00 0.00 0.00 1
20260904223603 16 192 0.0 6.4 0.00 0.00 0.00 84 1084.9
20260904223503 0 0 0.0 0.0 0.00 0.00 0.00 1
20260904223403 0 0 0.0 0.0 0.00 0.00 0.00 1
20260904223317 16 186 0.0 6.4 0.00 0.00 0.00 84 1085.0
20260904223303 16 184 0.0 6.4 0.00 0.00 0.00 84 1085.0
20260904223203 16 183 0.0 6.4 0.00 0.00 0.00 84 1085.0
20260904223103 0 0 0.0 0.0 0.00 0.00 0.00 1
20260904223003 0 0 0.0 0.0 0.00 0.00 0.00 1
20260904222904 16 201 0.0 1.6 0.00 0.00 0.00 84 1084.6
20260904222812 0 0 0.0 0.0 0.00 0.00 0.00 1
20260904222803 16 207 0.0 1.6 0.00 0.00 0.00 84 1085.0
20260904222703 0 0 0.0 0.0 0.00 0.00 0.00 1
20260904222614 0 0 0.0 0.0 0.00 0.00 0.00 1
20260904222603 16 206 0.0 1.6 0.00 0.00 0.00 83 1085.0
20260904222503 0 0 0.0 0.0 0.00 0.00 0.00 1
20260904222403 16 212 0.0 1.6 0.00 0.00 0.00 83 1084.7
20260904222306 0 0 0.0 0.0 0.00 0.00 0.00 1
20260904222203 0 0 0.0 0.0 0.00 0.00 0.00 1
20260904222103 16 256 0.0 1.6 0.00 0.00 0.00 83 1085.0
20260904222003 16 256 0.0 1.6 0.00 0.00 0.00 84 1084.9
20260904221903 0 0 0.0 0.0 0.00 0.00 0.00 1
20260904221803 0 0 0.0 0.0 0.00 0.00 0.00 1
20260904221703 16 282 0.0 1.6 0.00 0.00 0.00 83 1084.7
20260904221603 16 272 0.0 1.6 0.00 0.00 0.00 83 1084.5
20260904221503 0 0 0.0 0.0 0.00 0.00 0.00 1
20260904221403 16 244 0.0 1.6 0.00 0.00 0.00 83 1084.9
20260904221303 16 244 0.0 1.6 0.00 0.00 0.00 83 1084.9
20260904221203 0 0 0.0 0.0 0.00 0.00 0.00 1
20260904221103 0 0 0.0 0.0 0.00 0.00 0.00 1
20260904221003 0 0 0.0 0.0 0.00 0.00 0.00 1
20260904220903 0 0 0.0 0.0 0.00 0.00 0.00 1
20260904220803 0 0 0.0 0.0 0.00 0.00 0.00 1
20260904220703 0 0 0.0 0.0 0.00 0.00 0.00 1
20260904220603 0 0 0.0 0.0 0.00 0.00 0.00 1
20260904220503 16 206 0.0 3.2 0.00 0.00 0.00 82 1084.9
20260904220403 0 0 0.0 0.0 0.00 0.00 0.00 1
20260904220303 16 212 0.0 3.2 0.00 0.00 0.00 82 1084.6
20260904220203 0 0 0.0 0.0 0.00 0.00 0.00 1
20260904220004 16 208 0.0 3.2 0.00 0.00 0.00 82 1084.6
20260904215903 0 0 0.0 0.0 0.00 0.00 0.00 1
20260904215803 0 0 0.0 0.0 0.00 0.00 0.00 1
20260904215713 0 0 0.0 0.0 0.00 0.00 0.00 1
20260904215703 16 0 0.0 0.0 0.00 0.00 0.00 82 1084.9
20260904215603 0 0 0.0 0.0 0.00 0.00 0.00 1
20260904215503 16 0 0.0 0.0 0.00 0.00 0.00 82 1085.0
20260904215403 16 0 0.0 0.0 0.00 0.00 0.00 81 1084.7
20260904215305 0 0 0.0 0.0 0.00 0.00 0.00 1
20260904215203 0 0 0.0 0.0 0.00 0.00 0.00 1
20260904215103 0 0 0.0 0.0 0.00 0.00 0.00 1
20260904215003 16 0 0.0 0.0 0.00 0.00 0.00 81 1084.9
20260904214903 0 0 0.0 0.0 0.00 0.00 0.00 1
20260904214803 0 0 0.0 0.0 0.00 0.00 0.00 1
20260904214703 16 0 0.0 0.0 0.00 0.00 0.00 80 1085.0
20260904214613 0 0 0.0 0.0 0.00 0.00 0.00 1
20260904214603 16 0 0.0 0.0 0.00 0.00 0.00 80 1085.1
20260904214503 0 0 0.0 0.0 0.00 0.00 0.00 1
20260904214403 16 0 0.0 0.0 0.00 0.00 0.00 80 1084.9
20260904214303 0 0 0.0 0.0 0.00 0.00 0.00 1
20260904214203 0 0 0.0 0.0 0.00 0.00 0.00 1
20260904214103 16 0 0.0 0.0 0.00 0.00 0.00 80 1084.9
20260904214003 0 0 0.0 0.0 0.00 0.00 0.00 1
20260904213903 0 0 0.0 0.0 0.00 0.00 0.00 1
20260904213803 0 0 0.0 0.0 0.00 0.00 0.00 1
20260904213703 16 0 0.0 0.0 0.00 0.00 0.00 80 1084.7
20260904213603 0 0 0.0 0.0 0.00 0.00 0.00 1
20260904213503 0 0 0.0 0.0 0.00 0.00 0.00 1
20260904213403 16 0 0.0 0.0 0.00 0.00 0.00 80 1084.9
20260904213303 16 0 0.0 0.0 0.00 0.00 0.00 80 1084.7
20260904213204 0 0 0.0 0.0 0.00 0.00 0.00 1
20260904213103 0 0 0.0 0.0 0.00 0.00 0.00 1
20260904213003 0 0 0.0 0.0 0.00 0.00 0.00 1
20260904212903 0 0 0.0 0.0 0.00 0.00 0.00 1
20260904212803 0 0 0.0 0.0 0.00 0.00 0.00 1
20260904212703 16 0 0.0 0.0 0.00 0.00 0.00 79 1085.0
20260904212604 16 0 0.0 0.0 0.00 0.00 0.00 79 1084.5
20260904212503 16 0 0.0 0.0 0.00 0.00 0.00 79 1085.0
20260904212403 16 0 0.0 0.0 0.00 0.00 0.00 79 1085.0
20260904212306 16 0 0.0 0.0 0.00 0.00 0.00 79 1084.9
20260904212203 0 0 0.0 0.0 0.00 0.00 0.00 1
20260904212103 0 0 0.0 0.0 0.00 0.00 0.00 1
20260904212003 16 0 0.0 0.0 0.00 0.00 0.00 78 1084.9
20260904211903 16 0 0.0 0.0 0.00 0.00 0.00 78 1085.0
20260904211803 0 0 0.0 0.0 0.00 0.00 0.00 1
20260904211703 16 0 0.0 0.0 0.00 0.00 0.00 78 1084.7
20260904211603 16 0 0.0 0.0 0.00 0.00 0.00 78 1084.6
20260904211504 16 0 0.0 0.0 0.00 0.00 0.00 78 1084.6
20260904211418 16 0 0.0 0.0 0.00 0.00 0.00 78 1085.0
20260904211403 17 0 0.0 0.0 0.00 0.00 0.00 78 1085.0
20260904211303 0 0 0.0 0.0 0.00 0.00 0.00 1
20260904211203 0 0 0.0 0.0 0.00 0.00 0.00 1
20260904211103 17 0 0.0 0.0 0.00 0.00 0.00 77 1085.0
20260904211003 17 0 0.0 0.0 0.00 0.00 0.00 77 1084.6
20260904210903 0 0 0.0 0.0 0.00 0.00 0.00 1
20260904210803 17 0 0.0 0.0 0.00 0.00 0.00 77 1084.9
20260904210703 0 0 0.0 0.0 0.00 0.00 0.00 1
20260904210603 0 0 0.0 0.0 0.00 0.00 0.00 1
20260904210503 0 0 0.0 0.0 0.00 0.00 0.00 1
20260904210403 0 0 0.0 0.0 0.00 0.00 0.00 1
20260904210303 17 0 0.0 0.0 0.00 0.00 0.00 77 1084.7
20260904210203 0 0 0.0 0.0 0.00 0.00 0.00 1
20260904210018 17 0 0.0 0.0 0.00 0.00 0.00 77 1084.9
20260904210003 0 0 0.0 0.0 0.00 0.00 0.00 1
20260904205903 0 0 0.0 0.0 0.00 0.00 0.00 1
20260904205817 17 212 0.0 1.6 0.00 0.00 0.00 77 1085.0
20260904205803 0 0 0.0 0.0 0.00 0.00 0.00 1
20260904205703 17 212 0.0 1.6 0.00 0.00 0.00 77 1084.7
20260904205603 0 0 0.0 0.0 0.00 0.00 0.00 1
20260904205503 17 192 0.0 3.2 0.00 0.00 0.00 76 1085.2
20260904205403 0 0 0.0 0.0 0.00 0.00 0.00 1
20260904205305 17 167 0.0 3.2 0.00 0.00 0.00 76 1085.0
20260904205203 17 162 0.0 3.2 0.00 0.00 0.00 77 1085.2
20260904205103 0 0 0.0 0.0 0.00 0.00 0.00 1
20260904205003 0 0 0.0 0.0 0.00 0.00 0.00 1
20260904204903 0 0 0.0 0.0 0.00 0.00 0.00 1
20260904204803 0 0 0.0 0.0 0.00 0.00 0.00 1
20260904204703 0 0 0.0 0.0 0.00 0.00 0.00 1
20260904204603 0 0 0.0 0.0 0.00 0.00 0.00 1
20260904204514 0 0 0.0 0.0 0.00 0.00 0.00 1
20260904204403 0 0 0.0 0.0 0.00 0.00 0.00 1
20260904204318 17 141 0.0 1.6 0.00 0.00 0.00 76 1085.0
20260904204303 17 140 0.0 1.6 0.00 0.00 0.00 76 1085.0
20260904204203 17 133 0.0 1.6 0.00 0.00 0.00 75 1085.0
20260904204103 0 0 0.0 0.0 0.00 0.00 0.00 1
20260904204003 0 0 0.0 0.0 0.00 0.00 0.00 1
20260904203903 0 0 0.0 0.0 0.00 0.00 0.00 1
20260904203804 17 0 0.0 0.0 0.00 0.00 0.00 75 1085.0
20260904203703 17 0 0.0 0.0 0.00 0.00 0.00 74 1085.2
20260904203603 0 0 0.0 0.0 0.00 0.00 0.00 1
20260904203503 0 0 0.0 0.0 0.00 0.00 0.00 1
20260904203403 0 0 0.0 0.0 0.00 0.00 0.00 1
20260904203303 0 0 0.0 0.0 0.00 0.00 0.00 1
20260904203203 18 0 0.0 0.0 0.00 0.00 0.00 74 1085.1
20260904203103 0 0 0.0 0.0 0.00 0.00 0.00 1
20260904203018 18 0 0.0 0.0 0.00 0.00 0.00 75 1085.0
20260904203003 0 0 0.0 0.0 0.00 0.00 0.00 1
20260904202903 0 0 0.0 0.0 0.00 0.00 0.00 1
20260904202803 0 0 0.0 0.0 0.00 0.00 0.00 1
20260904202703 18 0 0.0 0.0 0.00 0.00 0.00 73 1085.0
20260904202604 0 0 0.0 0.0 0.00 0.00 0.00 1
20260904202503 0 0 0.0 0.0 0.00 0.00 0.00 1
20260904202403 0 0 0.0 0.0 0.00 0.00 0.00 1
20260904202305 18 0 0.0 0.0 0.00 0.00 0.00 72 1084.9
20260904202203 18 148 0.0 1.6 0.00 0.00 0.00 72 1085.0
20260904202103 0 0 0.0 0.0 0.00 0.00 0.00 1
20260904202003 18 145 0.0 6.4 0.00 0.00 0.00 72 1085.2
20260904201903 0 0 0.0 0.0 0.00 0.00 0.00 1
20260904201803 18 142 0.0 6.4 0.00 0.00 0.00 72 1084.7
20260904201703 0 0 0.0 0.0 0.00 0.00 0.00 1
20260904201603 0 0 0.0 0.0 0.00 0.00 0.00 1
20260904201503 0 0 0.0 0.0 0.00 0.00 0.00 1
20260904201403 0 0 0.0 0.0 0.00 0.00 0.00 1
20260904201304 0 0 0.0 0.0 0.00 0.00 0.00 1
20260904201203 18 142 0.0 6.4 0.00 0.00 0.00 72 1084.9
20260904201117 18 146 0.0 3.2 0.00 0.00 0.00 72 1085.1
20260904201103 0 0 0.0 0.0 0.00 0.00 0.00 1
20260904201003 19 138 0.0 3.2 0.00 0.00 0.00 71 1085.0
20260904200903 0 0 0.0 0.0 0.00 0.00 0.00 1
20260904200803 19 181 0.0 4.8 0.00 0.00 0.00 70 1085.0
20260904200703 19 158 0.0 4.8 0.00 0.00 0.00 70 1085.2
20260904200603 19 157 1.6 4.8 0.00 0.00 0.00 70 1085.1
20260904200503 19 157 1.6 4.8 0.00 0.00 0.00 70 1085.0
20260904200403 0 0 0.0 0.0 0.00 0.00 0.00 1
20260904200303 0 0 0.0 0.0 0.00 0.00 0.00 1
20260904200203 0 0 0.0 0.0 0.00 0.00 0.00 1
20260904200018 19 155 1.6 4.8 0.00 0.00 0.00 71 1085.0
20260904200003 0 0 0.0 0.0 0.00 0.00 0.00 1
20260904195908 0 0 0.0 0.0 0.00 0.00 0.00 1
20260904195903 19 156 1.6 4.8 0.00 0.00 0.00 70 1084.9
20260904195703 19 152 3.2 9.7 0.00 0.00 0.00 70 1085.1
20260904195603 19 151 3.2 9.7 0.00 0.00 0.00 70 1085.0
20260904195503 19 151 3.2 9.7 0.00 0.00 0.00 70 1085.4
20260904195403 19 149 3.2 9.7 0.00 0.00 0.00 70 1085.2
20260904195305 0 0 0.0 0.0 0.00 0.00 0.00 1
20260904195204 0 0 0.0 0.0 0.00 0.00 0.00 1